LiveATC.Net - Listen to live air traffic control over the Internet!
Airport/ARTCC Code
Frequency Search
(e.g., 124.400, 128.75)
Site-wide search
 


Browse Feeds
Top 50 Feeds
HF Oceanic Feeds
Coverage Map
Bad Weather Areas

LiveATC FAQ
Offer LiveATC feed
Contact LiveATC.net
Press Inquiries

LiveATC on iPhone
LiveATC on Android

LiveATC Mobile
(Mobile browser)

ATC Audio Archives
Interesting Recordings

LiveATC Forums

Home Page
About LiveATC.net


Terms of Use
Privacy Policy

AIRMETs/SIGMETs

FAA Airport Status
NAS Status
Arrival Demand


Server Software By:
Icecast.org
Liquidsoap

Select an area of interest:
U.S. Feeds: Class B Airports | Class C Airports | Class D/Other Airports | ARTCC (Centers)
International Feeds: Canada | Europe | Oceania | Asia | South America | North/Central America | Africa
Misc Feeds: HF Feeds
Search by ICAO/IATA airport code:   (e.g., kbos, kjfk, lax, eham, etc.)


Currently Available Live Feeds: 2986
Status Updated: Thu Feb 02 2023 02:14:38 UTC


NOTICE

Unauthorized use prohibited. See LiveATC.net Terms of Service

Europe Airport Feeds

 

EFJY Tower (Archives)
Jyvaskyla, Finland

Feed Status: UP
Listen in your browser - HTML5 player(in browser, HTML5)
Click here to listen with your own player(launches your MP3 player)

EFJY 020150Z AUTO VRB01KT 9999 OVC039 M05/M06 Q0999

EFJY Flight Activity (Flightaware)

Listeners: 0 out of 1831 total

Jyvaskyla Tower: 118.000
Jyvaskyla Tower: 119.700

EFKU Tower/Approach
Siilinjarvi, Finland

Feed Status: DOWN
Offline since: 2022-12-21 15:24:39 UTC

EFKU 020150Z AUTO 14004KT 9999 FEW004 OVC046 M06/M07 Q0999

Kuopio Approach: 130.600
Kuopio Tower: 120.150

Dutch Mil Radar (Archives)
Amsterdam, Netherlands

Feed Status: UP
Listen in your browser - HTML5 player(in browser, HTML5)
Click here to listen with your own player(launches your MP3 player)

EHLE 020155Z AUTO 27011KT 9999 FEW016 OVC036 07/05 Q1020

EHLE Flight Activity (Flightaware)

Listeners: 2 out of 1831 total

Approach: 124.530
Dutch Mil Flight Info: 264.325
Dutch Mil Radar: 128.355
Dutch Mil Radar: 132.350

EHAA Radar ARTIP (Archives)
Amsterdam, Netherlands

Feed Status: UP
Listen in your browser - HTML5 player(in browser, HTML5)
Click here to listen with your own player(launches your MP3 player)

EHAM 020155Z 27014KT 5000 RADZ FEW006 SCT012 BKN016 07/07 Q1020 BECMG 8000

EHAM Flight Activity (Flightaware)

Listeners: 2 out of 1831 total

EHAA Radar Sector 1 ARTIP: 120.550

EHAA Radar East Inbound
Amsterdam, Netherlands

Feed Status: DOWN
Offline since: 2022-12-23 22:30:40 UTC

EHAM 020155Z 27014KT 5000 RADZ FEW006 SCT012 BKN016 07/07 Q1020 BECMG 8000

EHAA Radar Sector 2 East Inbound: 128.575

EHAA Radar East Outbound (Archives)
Amsterdam, Netherlands

Feed Status: UP
Listen in your browser - HTML5 player(in browser, HTML5)
Click here to listen with your own player(launches your MP3 player)

EHAM 020155Z 27014KT 5000 RADZ FEW006 SCT012 BKN016 07/07 Q1020 BECMG 8000

EHAM Flight Activity (Flightaware)

Listeners: 1 out of 1831 total

EHAA Radar Sector 2 East Outbound: 124.875

EHAA Radar North
Amsterdam, Netherlands

Feed Status: DOWN
Offline since: 2022-12-23 22:20:39 UTC

EHAM 020155Z 27014KT 5000 RADZ FEW006 SCT012 BKN016 07/07 Q1020 BECMG 8000

EHAA Radar Sector 1 North: 134.375

EHAA Radar Northwest (Archives)
Amsterdam, Netherlands

Feed Status: UP
Listen in your browser - HTML5 player(in browser, HTML5)
Click here to listen with your own player(launches your MP3 player)

EHAM 020155Z 27014KT 5000 RADZ FEW006 SCT012 BKN016 07/07 Q1020 BECMG 8000

EHAM Flight Activity (Flightaware)

Listeners: 0 out of 1831 total

EHAA Radar Sector 5 Northwest: 123.705

EHAA Radar RIVER
Amsterdam, Netherlands

Feed Status: DOWN
Offline since: 2022-12-23 22:30:40 UTC

EHAM 020155Z 27014KT 5000 RADZ FEW006 SCT012 BKN016 07/07 Q1020 BECMG 8000

EHAA Radar Sector 3 RIVER: 130.950

EHAA Radar South (Archives)
Amsterdam, Netherlands

Feed Status: UP
Listen in your browser - HTML5 player(in browser, HTML5)
Click here to listen with your own player(launches your MP3 player)

EHAM 020155Z 27014KT 5000 RADZ FEW006 SCT012 BKN016 07/07 Q1020 BECMG 8000

EHAM Flight Activity (Flightaware)

Listeners: 0 out of 1831 total

EHAA Radar Sector 3 South: 123.850

EHAA Radar South (Backup) (Archives)
Amsterdam, Netherlands

Feed Status: UP
Listen in your browser - HTML5 player(in browser, HTML5)
Click here to listen with your own player(launches your MP3 player)

EHAM 020155Z 27014KT 5000 RADZ FEW006 SCT012 BKN016 07/07 Q1020 BECMG 8000

EHAM Flight Activity (Flightaware)

Listeners: 0 out of 1831 total

EHAA Radar Sector 3 South Backup : 127.775

EHAA Radar Southwest (Archives)
Amsterdam, Netherlands

Feed Status: UP
Listen in your browser - HTML5 player(in browser, HTML5)
Click here to listen with your own player(launches your MP3 player)

EHAM 020155Z 27014KT 5000 RADZ FEW006 SCT012 BKN016 07/07 Q1020 BECMG 8000

EHAM Flight Activity (Flightaware)

Listeners: 1 out of 1831 total

EHAA Radar Sector 4 Southwest: 125.750

EHAA Radar SUGOL (Archives)
Amsterdam, Netherlands

Feed Status: UP
Listen in your browser - HTML5 player(in browser, HTML5)
Click here to listen with your own player(launches your MP3 player)

EHAM 020155Z 27014KT 5000 RADZ FEW006 SCT012 BKN016 07/07 Q1020 BECMG 8000

EHAM Flight Activity (Flightaware)

Listeners: 0 out of 1831 total

EHAA Radar Sector 5 SUGOL: 118.800

EHAM Airside Ops Mgr (AOM)
Amsterdam, Netherlands

Feed Status: DOWN
Offline since: 2022-12-23 22:30:40 UTC

EHAM 020155Z 27014KT 5000 RADZ FEW006 SCT012 BKN016 07/07 Q1020 BECMG 8000

Schiphol Airside Operations Manager: 130.475

EHAM App/Dep Backup (Archives)
Amsterdam, Netherlands

Feed Status: UP
Listen in your browser - HTML5 player(in browser, HTML5)
Click here to listen with your own player(launches your MP3 player)

EHAM 020155Z 27014KT 5000 RADZ FEW006 SCT012 BKN016 07/07 Q1020 BECMG 8000

EHAM Flight Activity (Flightaware)

Listeners: 0 out of 1831 total

Schiphol App/Dep Backup: 118.075

EHAM App/Dep TMA East (Archives)
Amsterdam, Netherlands

Feed Status: UP
Listen in your browser - HTML5 player(in browser, HTML5)
Click here to listen with your own player(launches your MP3 player)

EHAM 020155Z 27014KT 5000 RADZ FEW006 SCT012 BKN016 07/07 Q1020 BECMG 8000

EHAM Flight Activity (Flightaware)

Listeners: 1 out of 1831 total

Amsterdam Approach/Departure TMA East: 119.055

EHAM App/Dep TMA West (Archives)
Amsterdam, Netherlands

Feed Status: UP
Listen in your browser - HTML5 player(in browser, HTML5)
Click here to listen with your own player(launches your MP3 player)

EHAM 020155Z 27014KT 5000 RADZ FEW006 SCT012 BKN016 07/07 Q1020 BECMG 8000

EHAM Flight Activity (Flightaware)

Listeners: 0 out of 1831 total

Amsterdam Approach/Departure TMA West: 121.200

EHAM Apron (North) (Archives)
Amsterdam, Netherlands

Feed Status: UP
Listen in your browser - HTML5 player(in browser, HTML5)
Click here to listen with your own player(launches your MP3 player)

EHAM 020155Z 27014KT 5000 RADZ FEW006 SCT012 BKN016 07/07 Q1020 BECMG 8000

EHAM Flight Activity (Flightaware)

Listeners: 0 out of 1831 total

Schiphol Apron (North): 121.880

EHAM Apron (South) (Archives)
Amsterdam, Netherlands

Feed Status: UP
Listen in your browser - HTML5 player(in browser, HTML5)
Click here to listen with your own player(launches your MP3 player)

EHAM 020155Z 27014KT 5000 RADZ FEW006 SCT012 BKN016 07/07 Q1020 BECMG 8000

EHAM Flight Activity (Flightaware)

Listeners: 0 out of 1831 total

Schiphol Apron (South): 121.780

EHAM Arrival (Primary) (Archives)
Amsterdam, Netherlands

Feed Status: UP
Listen in your browser - HTML5 player(in browser, HTML5)
Click here to listen with your own player(launches your MP3 player)

EHAM 020155Z 27014KT 5000 RADZ FEW006 SCT012 BKN016 07/07 Q1020 BECMG 8000

EHAM Flight Activity (Flightaware)

Listeners: 0 out of 1831 total

Amsterdam Arrival : 118.400

EHAM Arrival (Secondary)
Amsterdam, Netherlands

Feed Status: DOWN
Offline since: 2022-12-23 22:30:40 UTC

EHAM 020155Z 27014KT 5000 RADZ FEW006 SCT012 BKN016 07/07 Q1020 BECMG 8000

Amsterdam Arrival (Secondary): 131.150

EHAM Arrival (Secondary/Backup)
Amsterdam, Netherlands

Feed Status: DOWN
Offline since: 2022-12-23 22:25:06 UTC

EHAM 020155Z 27014KT 5000 RADZ FEW006 SCT012 BKN016 07/07 Q1020 BECMG 8000

Amsterdam Arrival (Secondary Backup): 131.275

EHAM Arrival Backup/Discrete (Archives)
Amsterdam, Netherlands

Feed Status: UP
Listen in your browser - HTML5 player(in browser, HTML5)
Click here to listen with your own player(launches your MP3 player)

EHAM 020155Z 27014KT 5000 RADZ FEW006 SCT012 BKN016 07/07 Q1020 BECMG 8000

EHAM Flight Activity (Flightaware)

Listeners: 0 out of 1831 total

Schiphol Arrival Backup: 126.675

EHAM ATIS (Arrival)
Amsterdam, Netherlands

Feed Status: DOWN
Offline since: 2022-12-23 22:20:39 UTC

EHAM 020155Z 27014KT 5000 RADZ FEW006 SCT012 BKN016 07/07 Q1020 BECMG 8000

Schiphol ATIS (Arrival): 132.980

EHAM ATIS (Departure)
Amsterdam, Netherlands

Feed Status: DOWN
Offline since: 2022-12-23 22:08:21 UTC

EHAM 020155Z 27014KT 5000 RADZ FEW006 SCT012 BKN016 07/07 Q1020 BECMG 8000

Schiphol ATIS (Departure): 122.205

EHAM Clearance Delivery (Archives)
Amsterdam, Netherlands

Feed Status: UP
Listen in your browser - HTML5 player(in browser, HTML5)
Click here to listen with your own player(launches your MP3 player)

EHAM 020155Z 27014KT 5000 RADZ FEW006 SCT012 BKN016 07/07 Q1020 BECMG 8000

EHAM Flight Activity (Flightaware)

Listeners: 0 out of 1831 total

Schiphol Clearance Delivery: 121.980

EHAM Ground (Backup) (Archives)
Amsterdam, Netherlands

Feed Status: UP
Listen in your browser - HTML5 player(in browser, HTML5)
Click here to listen with your own player(launches your MP3 player)

EHAM 020155Z 27014KT 5000 RADZ FEW006 SCT012 BKN016 07/07 Q1020 BECMG 8000

EHAM Flight Activity (Flightaware)

Listeners: 0 out of 1831 total

Schiphol Ground (Backup): 122.425

EHAM Ground (North) (Archives)
Amsterdam, Netherlands

Feed Status: UP
Listen in your browser - HTML5 player(in browser, HTML5)
Click here to listen with your own player(launches your MP3 player)

EHAM 020155Z 27014KT 5000 RADZ FEW006 SCT012 BKN016 07/07 Q1020 BECMG 8000

EHAM Flight Activity (Flightaware)

Listeners: 0 out of 1831 total

Schiphol Ground (North): 121.805

EHAM Ground (South) (Archives)
Amsterdam, Netherlands

Feed Status: UP
Listen in your browser - HTML5 player(in browser, HTML5)
Click here to listen with your own player(launches your MP3 player)

EHAM 020155Z 27014KT 5000 RADZ FEW006 SCT012 BKN016 07/07 Q1020 BECMG 8000

EHAM Flight Activity (Flightaware)

Listeners: 0 out of 1831 total

Schiphol Ground (South): 121.705

EHAM Ground (West) (Archives)
Amsterdam, Netherlands

Feed Status: UP
Listen in your browser - HTML5 player(in browser, HTML5)
Click here to listen with your own player(launches your MP3 player)

EHAM 020155Z 27014KT 5000 RADZ FEW006 SCT012 BKN016 07/07 Q1020 BECMG 8000

EHAM Flight Activity (Flightaware)

Listeners: 1 out of 1831 total

Schiphol Ground (West): 121.560

EHAM Info North Sea (North) (Archives)
Amsterdam, Netherlands

Feed Status: UP
Listen in your browser - HTML5 player(in browser, HTML5)
Click here to listen with your own player(launches your MP3 player)

EHAM 020155Z 27014KT 5000 RADZ FEW006 SCT012 BKN016 07/07 Q1020 BECMG 8000

EHAM Flight Activity (Flightaware)

Listeners: 1 out of 1831 total

Amsterdam Info North Sea (North): 119.175

EHAM Info North Sea (Over Land) (Archives)
Amsterdam, Netherlands

Feed Status: UP
Listen in your browser - HTML5 player(in browser, HTML5)
Click here to listen with your own player(launches your MP3 player)

EHAM 020155Z 27014KT 5000 RADZ FEW006 SCT012 BKN016 07/07 Q1020 BECMG 8000

EHAM Flight Activity (Flightaware)

Listeners: 1 out of 1831 total

Amsterdam Info North Sea (Over Land): 124.300

EHAM Info North Sea (South)
Amsterdam, Netherlands

Feed Status: DOWN
Offline since: 2022-03-10 10:29:38 UTC

EHAM 020155Z 27014KT 5000 RADZ FEW006 SCT012 BKN016 07/07 Q1020 BECMG 8000

Amsterdam Info North Sea (South): 136.650

EHAM Schiphol Outbound Planner (Archives)
Amsterdam, Netherlands

Feed Status: UP
Listen in your browser - HTML5 player(in browser, HTML5)
Click here to listen with your own player(launches your MP3 player)

EHAM 020155Z 27014KT 5000 RADZ FEW006 SCT012 BKN016 07/07 Q1020 BECMG 8000

EHAM Flight Activity (Flightaware)

Listeners: 1 out of 1831 total

Schiphol Outbound Planner: 121.655

EHAM Tow Traffic
Amsterdam, Netherlands

Feed Status: DOWN
Offline since: 2022-03-10 10:29:38 UTC

EHAM 020155Z 27014KT 5000 RADZ FEW006 SCT012 BKN016 07/07 Q1020 BECMG 8000

Schiphol Tow Traffic: 134.875

EHAM Tower (06/24)
Amsterdam, Netherlands

Feed Status: DOWN
Offline since: 2022-12-23 22:08:21 UTC

EHAM 020155Z 27014KT 5000 RADZ FEW006 SCT012 BKN016 07/07 Q1020 BECMG 8000

Schiphol Tower Main 06/24: 135.110

EHAM Tower (18C/36C-27/09) (Archives)
Amsterdam, Netherlands

Feed Status: UP
Listen in your browser - HTML5 player(in browser, HTML5)
Click here to listen with your own player(launches your MP3 player)

EHAM 020155Z 27014KT 5000 RADZ FEW006 SCT012 BKN016 07/07 Q1020 BECMG 8000

EHAM Flight Activity (Flightaware)

Listeners: 0 out of 1831 total

Schiphol Tower Main 18C/36C - 27/09: 118.100

EHAM Tower (18L/36R-22/04) (Archives)
Amsterdam, Netherlands

Feed Status: UP
Listen in your browser - HTML5 player(in browser, HTML5)
Click here to listen with your own player(launches your MP3 player)

EHAM 020155Z 27014KT 5000 RADZ FEW006 SCT012 BKN016 07/07 Q1020 BECMG 8000

EHAM Flight Activity (Flightaware)

Listeners: 0 out of 1831 total

Schiphol Tower Main 18L/36R - 22/04: 119.225

EHAM Tower Backup (Archives)
Amsterdam, Netherlands

Feed Status: UP
Listen in your browser - HTML5 player(in browser, HTML5)
Click here to listen with your own player(launches your MP3 player)

EHAM 020155Z 27014KT 5000 RADZ FEW006 SCT012 BKN016 07/07 Q1020 BECMG 8000

EHAM Flight Activity (Flightaware)

Listeners: 0 out of 1831 total

Schiphol Tower Backup: 119.905

EHAM Tower West (18R/36L) (Archives)
Amsterdam, Netherlands

Feed Status: UP
Listen in your browser - HTML5 player(in browser, HTML5)
Click here to listen with your own player(launches your MP3 player)

EHAM 020155Z 27014KT 5000 RADZ FEW006 SCT012 BKN016 07/07 Q1020 BECMG 8000

EHAM Flight Activity (Flightaware)

Listeners: 0 out of 1831 total

Schiphol Tower West 18R/36L: 118.280

EHBK ATIS (Archives)
Beek, Netherlands

Feed Status: UP
Listen in your browser - HTML5 player(in browser, HTML5)
Click here to listen with your own player(launches your MP3 player)

EHBK 020155Z AUTO 25009KT 220V300 9999 SCT016 BKN019 BKN028 07/04 Q1022

EHBK Flight Activity (Flightaware)

Listeners: 0 out of 1831 total

Beek ATIS: 124.575

EHBK Gnd/Twr/App (Archives)
Beek, Netherlands

Feed Status: UP
Listen in your browser - HTML5 player(in browser, HTML5)
Click here to listen with your own player(launches your MP3 player)

EHBK 020155Z AUTO 25009KT 220V300 9999 SCT016 BKN019 BKN028 07/04 Q1022

EHBK Flight Activity (Flightaware)

Listeners: 0 out of 1831 total

Beek Approach: 120.200
Beek Approach: 123.975
Beek Ground: 121.825
Beek Tower: 119.475
Beek Tower: 119.700

MUAC/Eurocontrol Koksy (Archives)
Beek, Netherlands

Feed Status: UP
Listen in your browser - HTML5 player(in browser, HTML5)
Click here to listen with your own player(launches your MP3 player)

EHBK 020155Z AUTO 25009KT 220V300 9999 SCT016 BKN019 BKN028 07/04 Q1022

EHBK Flight Activity (Flightaware)

Listeners: 0 out of 1831 total

MUAC Koksy Sector: 132.205

MUAC/Eurocontrol Koksy High (Archives)
Beek, Netherlands

Feed Status: UP
Listen in your browser - HTML5 player(in browser, HTML5)
Click here to listen with your own player(launches your MP3 player)

EHBK 020155Z AUTO 25009KT 220V300 9999 SCT016 BKN019 BKN028 07/04 Q1022

EHBK Flight Activity (Flightaware)

Listeners: 0 out of 1831 total

MUAC Koksy High Sector: 132.755

MUAC/Eurocontrol Lux High (Archives)
Beek, Netherlands

Feed Status: UP
Listen in your browser - HTML5 player(in browser, HTML5)
Click here to listen with your own player(launches your MP3 player)

EHBK 020155Z AUTO 25009KT 220V300 9999 SCT016 BKN019 BKN028 07/04 Q1022

EHBK Flight Activity (Flightaware)

Listeners: 0 out of 1831 total

MUAC Lux High Sector: 132.315

MUAC/Eurocontrol Lux Low (Archives)
Beek, Netherlands

Feed Status: UP
Listen in your browser - HTML5 player(in browser, HTML5)
Click here to listen with your own player(launches your MP3 player)

EHBK 020155Z AUTO 25009KT 220V300 9999 SCT016 BKN019 BKN028 07/04 Q1022

EHBK Flight Activity (Flightaware)

Listeners: 0 out of 1831 total

MUAC Lux Low Sector: 133.355

MUAC/Eurocontrol Olno Low (Archives)
Beek, Netherlands

Feed Status: UP
Listen in your browser - HTML5 player(in browser, HTML5)
Click here to listen with your own player(launches your MP3 player)

EHBK 020155Z AUTO 25009KT 220V300 9999 SCT016 BKN019 BKN028 07/04 Q1022

EHBK Flight Activity (Flightaware)

Listeners: 0 out of 1831 total

MUAC Olno Low Sector: 132.855

MUAC/Eurocontrol Ruhr (Archives)
Beek, Netherlands

Feed Status: UP
Listen in your browser - HTML5 player(in browser, HTML5)
Click here to listen with your own player(launches your MP3 player)

EHBK 020155Z AUTO 25009KT 220V300 9999 SCT016 BKN019 BKN028 07/04 Q1022

EHBK Flight Activity (Flightaware)

Listeners: 0 out of 1831 total

MUAC Ruhr Sector: 124.425

EHEH Approach #1 (Archives)
Eindhoven, Netherlands

Feed Status: UP
Listen in your browser - HTML5 player(in browser, HTML5)
Click here to listen with your own player(launches your MP3 player)

EHEH 020155Z AUTO 26011KT 220V300 9999 BKN019 OVC023 08/05 Q1022 WHT

EHEH Flight Activity (Flightaware)

Listeners: 1 out of 1831 total

DutchMil Info: 132.355
DutchMil Info UHF: 341.600
DutchMil RAPCON South: 123.180
Eindhoven Arrival: 125.530
Eindhoven Arrival (UHF): 265.975
Emergency/Guard: 121.500
Rapcon South UHF: 388.525
Volkel Arrival UHF: 291.200

EHEH Tower #1 (Archives)
Eindhoven, Netherlands

Feed Status: UP
Listen in your browser - HTML5 player(in browser, HTML5)
Click here to listen with your own player(launches your MP3 player)

EHEH 020155Z AUTO 26011KT 220V300 9999 BKN019 OVC023 08/05 Q1022 WHT

EHEH Flight Activity (Flightaware)

Listeners: 0 out of 1831 total

Eindhoven Tower: 131.005
Eindhoven Tower (UHF): 241.550
Generic Tower: 122.100
Generic Tower (UHF): 257.800
Volkel Tower: 136.080
Volkel Tower (UHF): 291.100

EHGG Approach (Archives)
Groningen, Netherlands

Feed Status: UP
Listen in your browser - HTML5 player(in browser, HTML5)
Click here to listen with your own player(launches your MP3 player)

EHGG 020155Z AUTO 26007KT 220V290 9999 NSC 05/03 Q1017

EHGG Flight Activity (Flightaware)

Listeners: 0 out of 1831 total

Eelde Approach: 120.305

EHGG ATIS (Archives)
Groningen, Netherlands

Feed Status: UP
Listen in your browser - HTML5 player(in browser, HTML5)
Click here to listen with your own player(launches your MP3 player)

EHGG 020155Z AUTO 26007KT 220V290 9999 NSC 05/03 Q1017

EHGG Flight Activity (Flightaware)

Listeners: 0 out of 1831 total

Groningen ATIS: 133.555

EHGG Ground (Archives)
Groningen, Netherlands

Feed Status: UP
Listen in your browser - HTML5 player(in browser, HTML5)
Click here to listen with your own player(launches your MP3 player)

EHGG 020155Z AUTO 26007KT 220V290 9999 NSC 05/03 Q1017

EHGG Flight Activity (Flightaware)

Listeners: 0 out of 1831 total

Eelde Clearance Delivery/Ground: 121.705

EHGG Guard/Emergency (Archives)
Groningen, Netherlands

Feed Status: UP
Listen in your browser - HTML5 player(in browser, HTML5)
Click here to listen with your own player(launches your MP3 player)

EHGG 020155Z AUTO 26007KT 220V290 9999 NSC 05/03 Q1017

EHGG Flight Activity (Flightaware)

Listeners: 0 out of 1831 total

Emergency/Guard: 121.500

EHGG Tower (Archives)
Groningen, Netherlands

Feed Status: UP
Listen in your browser - HTML5 player(in browser, HTML5)
Click here to listen with your own player(launches your MP3 player)

EHGG 020155Z AUTO 26007KT 220V290 9999 NSC 05/03 Q1017

EHGG Flight Activity (Flightaware)

Listeners: 2 out of 1831 total

Eelde Tower: 118.705

EHGG Twr/App (Secondary) (Archives)
Groningen, Netherlands

Feed Status: UP
Listen in your browser - HTML5 player(in browser, HTML5)
Click here to listen with your own player(launches your MP3 player)

EHGG 020155Z AUTO 26007KT 220V290 9999 NSC 05/03 Q1017

EHGG Flight Activity (Flightaware)

Listeners: 0 out of 1831 total

Eelde Tower/App (Backup): 119.705

MUAC/Eurocontrol (EHGG Area) (Archives)
Groningen, Netherlands

Feed Status: UP
Listen in your browser - HTML5 player(in browser, HTML5)
Click here to listen with your own player(launches your MP3 player)

EHGG 020155Z AUTO 26007KT 220V290 9999 NSC 05/03 Q1017

EHGG Flight Activity (Flightaware)

Listeners: 0 out of 1831 total

MUAC Holstein High Sector: 132.775
MUAC Holstein Sector: 120.9333
MUAC Javer High Sector: 134.700
MUAC Jever Sector: 136.4666

EHGR Ground (Archives)
Breda, Netherlands

Feed Status: UP
Listen in your browser - HTML5 player(in browser, HTML5)
Click here to listen with your own player(launches your MP3 player)

EHGR 020155Z AUTO 27012KT 9999 BKN027 OVC041 08/05 Q1022 BLU

EHGR Flight Activity (Flightaware)

Listeners: 0 out of 1831 total

Gilze Rijen Ground: 121.680

EHGR Ground/Tower (Archives)
Breda, Netherlands

Feed Status: UP
Listen in your browser - HTML5 player(in browser, HTML5)
Click here to listen with your own player(launches your MP3 player)

EHGR 020155Z AUTO 27012KT 9999 BKN027 OVC041 08/05 Q1022 BLU

EHGR Flight Activity (Flightaware)

Listeners: 0 out of 1831 total

Gilze Rijen Ground: 121.680
Gilze Rijen Tower: 125.330

EHGR Tower (Archives)
Breda, Netherlands

Feed Status: UP
Listen in your browser - HTML5 player(in browser, HTML5)
Click here to listen with your own player(launches your MP3 player)

EHGR 020155Z AUTO 27012KT 9999 BKN027 OVC041 08/05 Q1022 BLU

EHGR Flight Activity (Flightaware)

Listeners: 0 out of 1831 total

Gilze Rijen Tower: 125.330

EHHV CTAF
Hilversum, Netherlands

Feed Status: DOWN
Offline since: 2023-01-20 04:59:05 UTC

Hilversum Radio: 131.030

EHKD ATIS (Archives)
Den Helder, Netherlands

Feed Status: UP
Listen in your browser - HTML5 player(in browser, HTML5)
Click here to listen with your own player(launches your MP3 player)

EHKD 020155Z AUTO 28013KT 250V310 9000 -DZ FEW015CB BKN027 OVC031 07/06 Q1019 REDZ BLU

EHKD Flight Activity (Flightaware)

Listeners: 0 out of 1831 total

De Kooy ATIS: 133.015

EHKD Ground/Tower (Archives)
Den Helder, Netherlands

Feed Status: UP
Listen in your browser - HTML5 player(in browser, HTML5)
Click here to listen with your own player(launches your MP3 player)

EHKD 020155Z AUTO 28013KT 250V310 9000 -DZ FEW015CB BKN027 OVC031 07/06 Q1019 REDZ BLU

EHKD Flight Activity (Flightaware)

Listeners: 1 out of 1831 total

De Kooy Ground: 121.730
De Kooy Tower: 120.130

Approach/Dutch Mil Radar (Archives)
Lelystad, Netherlands

Feed Status: UP
Listen in your browser - HTML5 player(in browser, HTML5)
Click here to listen with your own player(launches your MP3 player)

EHLE 020155Z AUTO 27011KT 9999 FEW016 OVC036 07/05 Q1020

EHLE Flight Activity (Flightaware)

Listeners: 2 out of 1831 total

Approach: 124.530
Dutch Mil Flight Info: 264.325
Dutch Mil Radar: 128.355
Dutch Mil Radar: 132.350

EHLE App/Dep (Archives)
Lelystad, Netherlands

Feed Status: UP
Listen in your browser - HTML5 player(in browser, HTML5)
Click here to listen with your own player(launches your MP3 player)

EHLE 020155Z AUTO 27011KT 9999 FEW016 OVC036 07/05 Q1020

EHLE Flight Activity (Flightaware)

Listeners: 0 out of 1831 total

Lelystad Approach: 134.530

EHLE Clearance Delivery (Archives)
Lelystad, Netherlands

Feed Status: UP
Listen in your browser - HTML5 player(in browser, HTML5)
Click here to listen with your own player(launches your MP3 player)

EHLE 020155Z AUTO 27011KT 9999 FEW016 OVC036 07/05 Q1020

EHLE Flight Activity (Flightaware)

Listeners: 0 out of 1831 total

Lelystad Clearance Delivery: 123.680

EHLE FIC (Archives)
Lelystad, Netherlands

Feed Status: UP
Listen in your browser - HTML5 player(in browser, HTML5)
Click here to listen with your own player(launches your MP3 player)

EHLE 020155Z AUTO 27011KT 9999 FEW016 OVC036 07/05 Q1020

EHLE Flight Activity (Flightaware)

Listeners: 0 out of 1831 total

FIC Amsterdam Information: 124.300

EHLE Tower (Archives)
Lelystad, Netherlands

Feed Status: UP
Listen in your browser - HTML5 player(in browser, HTML5)
Click here to listen with your own player(launches your MP3 player)

EHLE 020155Z AUTO 27011KT 9999 FEW016 OVC036 07/05 Q1020

EHLE Flight Activity (Flightaware)

Listeners: 0 out of 1831 total

Lelystad Tower: 135.180
Lelystad Tower: 123.830

EHMM CTAF (Archives)
Middenmeer, Netherlands

Feed Status: UP
Listen in your browser - HTML5 player(in browser, HTML5)
Click here to listen with your own player(launches your MP3 player)

EHMM Flight Activity (Flightaware)

Listeners: 0 out of 1831 total

Middenmeer CTAF: 123.425

EHMZ (Archives)
Middelburg, Netherlands

Feed Status: UP
Listen in your browser - HTML5 player(in browser, HTML5)
Click here to listen with your own player(launches your MP3 player)

EHMZ Flight Activity (Flightaware)

Listeners: 0 out of 1831 total

Midden-Zeeland Radio: 119.255

EHRD Approach (Archives)
Rotterdam, Netherlands

Feed Status: UP
Listen in your browser - HTML5 player(in browser, HTML5)
Click here to listen with your own player(launches your MP3 player)

EHRD 020155Z AUTO 28015KT 240V310 9999 OVC045 08/06 Q1021 NOSIG

EHRD Flight Activity (Flightaware)

Listeners: 1 out of 1831 total

Rotterdam Approach: 122.990
Rotterdam Approach: 124.535
Rotterdam Approach: 281.050

EHRD Clearance Delivery (Archives)
Rotterdam, Netherlands

Feed Status: UP
Listen in your browser - HTML5 player(in browser, HTML5)
Click here to listen with your own player(launches your MP3 player)

EHRD 020155Z AUTO 28015KT 240V310 9999 OVC045 08/06 Q1021 NOSIG

EHRD Flight Activity (Flightaware)

Listeners: 1 out of 1831 total

Rotterdam Del/Gnd: 122.180

EHRD Del/Twr (Archives)
Rotterdam, Netherlands

Feed Status: UP
Listen in your browser - HTML5 player(in browser, HTML5)
Click here to listen with your own player(launches your MP3 player)

EHRD 020155Z AUTO 28015KT 240V310 9999 OVC045 08/06 Q1021 NOSIG

EHRD Flight Activity (Flightaware)

Listeners: 1 out of 1831 total

Rotterdam Del/Gnd: 122.180
Rotterdam Tower: 118.205

EHRD Gnd/Twr/App (Archives)
Rotterdam, Netherlands

Feed Status: UP
Listen in your browser - HTML5 player(in browser, HTML5)
Click here to listen with your own player(launches your MP3 player)

EHRD 020155Z AUTO 28015KT 240V310 9999 OVC045 08/06 Q1021 NOSIG

EHRD Flight Activity (Flightaware)

Listeners: 1 out of 1831 total

Adam Info: 124.300
Regional Guard: 119.705
Rotterdam Approach: 127.025
Rotterdam Del/Gnd: 122.180
Rotterdam Tower: 118.205
SAR: 123.100
SAR: 282.800

EHRD Tower (Archives)
Rotterdam, Netherlands

Feed Status: UP
Listen in your browser - HTML5 player(in browser, HTML5)
Click here to listen with your own player(launches your MP3 player)

EHRD 020155Z AUTO 28015KT 240V310 9999 OVC045 08/06 Q1021 NOSIG

EHRD Flight Activity (Flightaware)

Listeners: 1 out of 1831 total

Rotterdam Tower: 118.205
Rotterdam Tower: 362.300

EHRD Twr/App
Rotterdam, Netherlands

Feed Status: DOWN
Offline since: 2020-03-14 14:15:39 UTC

EHRD 020155Z AUTO 28015KT 240V310 9999 OVC045 08/06 Q1021 NOSIG

Rotterdam Approach: 127.025
Rotterdam Tower: 118.205

EHVL CTAF/Range Control
Vlieland, Netherlands

Feed Status: DOWN
Offline since: 2021-06-08 14:20:38 UTC

EHVL 020155Z AUTO 27017KT 7000 BR FEW012 SCT037 BKN042 07/06 Q1018 WHT

Cornfield VHF (CTAF): 122.100
Range Controller (Primary): 291.650
Range Controller (Secondary): 370.300
Range Controller VHF: 138.075

EICK Approach/Departure (Archives)
Cork, Ireland

Feed Status: UP
Listen in your browser - HTML5 player(in browser, HTML5)
Click here to listen with your own player(launches your MP3 player)

EICK 020130Z 23009KT 9999 BKN006 BKN030 09/08 Q1027 NOSIG

EICK Flight Activity (Flightaware)

Listeners: 0 out of 1831 total

Cork Approach: 119.900

EICK Gnd/Twr/App/Dep (Archives)
Cork, Ireland

Feed Status: UP
Listen in your browser - HTML5 player(in browser, HTML5)
Click here to listen with your own player(launches your MP3 player)

EICK 020130Z 23009KT 9999 BKN006 BKN030 09/08 Q1027 NOSIG

EICK Flight Activity (Flightaware)

Listeners: 1 out of 1831 total

Cork Approach: 119.900
Cork Ground: 121.850
Cork Tower: 119.300

EICK Ground/Tower (Archives)
Cork, Ireland

Feed Status: UP
Listen in your browser - HTML5 player(in browser, HTML5)
Click here to listen with your own player(launches your MP3 player)

EICK 020130Z 23009KT 9999 BKN006 BKN030 09/08 Q1027 NOSIG

EICK Flight Activity (Flightaware)

Listeners: 0 out of 1831 total

Cork Ground: 121.850
Cork Tower: 119.300

EIDW Approach (Archives)
Dublin, Ireland

Feed Status: UP
Listen in your browser - HTML5 player(in browser, HTML5)
Click here to listen with your own player(launches your MP3 player)

EIDW 020130Z 24011KT 200V290 9999 FEW008 BKN010 09/07 Q1023 NOSIG

EIDW Flight Activity (Flightaware)

Listeners: 2 out of 1831 total

Dublin Approach: 121.100

EIDW Approach (Final) (Archives)
Dublin, Ireland

Feed Status: UP
Listen in your browser - HTML5 player(in browser, HTML5)
Click here to listen with your own player(launches your MP3 player)

EIDW 020130Z 24011KT 200V290 9999 FEW008 BKN010 09/07 Q1023 NOSIG

EIDW Flight Activity (Flightaware)

Listeners: 2 out of 1831 total

Dublin Approach (Final): 119.930

EIDW Clearance Delivery (Archives)
Dublin, Ireland

Feed Status: UP
Listen in your browser - HTML5 player(in browser, HTML5)
Click here to listen with your own player(launches your MP3 player)

EIDW 020130Z 24011KT 200V290 9999 FEW008 BKN010 09/07 Q1023 NOSIG

EIDW Flight Activity (Flightaware)

Listeners: 1 out of 1831 total

Dublin Clearance Delivery: 121.875

EIDW Del/Gnd/Twr/App/Center (Archives)
Dublin, Ireland

Feed Status: UP
Listen in your browser - HTML5 player(in browser, HTML5)
Click here to listen with your own player(launches your MP3 player)

EIDW 020130Z 24011KT 200V290 9999 FEW008 BKN010 09/07 Q1023 NOSIG

EIDW Flight Activity (Flightaware)

Listeners: 5 out of 1831 total

Dublin Approach: 121.100
Dublin Approach (backup): 119.555
Dublin Centre North: 129.175
Dublin Centre South: 126.250
Dublin Clearance Delivery: 121.875
Dublin FIS: 118.500
Dublin Ground: 121.800
Dublin Tower: 118.600

EIDW Dublin Center (Archives)
Dublin, Ireland

Feed Status: UP
Listen in your browser - HTML5 player(in browser, HTML5)
Click here to listen with your own player(launches your MP3 player)

EIDW 020130Z 24011KT 200V290 9999 FEW008 BKN010 09/07 Q1023 NOSIG

EIDW Flight Activity (Flightaware)

Listeners: 0 out of 1831 total

Dublin Center: 120.755

EIDW Ground (Archives)
Dublin, Ireland

Feed Status: UP
Listen in your browser - HTML5 player(in browser, HTML5)
Click here to listen with your own player(launches your MP3 player)

EIDW 020130Z 24011KT 200V290 9999 FEW008 BKN010 09/07 Q1023 NOSIG

EIDW Flight Activity (Flightaware)

Listeners: 1 out of 1831 total

Dublin Ground: 121.800

EIDW Tower #1 (Archives)
Dublin, Ireland

Feed Status: UP
Listen in your browser - HTML5 player(in browser, HTML5)
Click here to listen with your own player(launches your MP3 player)

EIDW 020130Z 24011KT 200V290 9999 FEW008 BKN010 09/07 Q1023 NOSIG

EIDW Flight Activity (Flightaware)

Listeners: 0 out of 1831 total

Dublin Tower: 118.600

EIDW Tower (North) (Archives)
Dublin, Ireland

Feed Status: UP
Listen in your browser - HTML5 player(in browser, HTML5)
Click here to listen with your own player(launches your MP3 player)

EIDW 020130Z 24011KT 200V290 9999 FEW008 BKN010 09/07 Q1023 NOSIG

EIDW Flight Activity (Flightaware)

Listeners: 0 out of 1831 total

Dublin Tower (North): 124.680

EIKN Gnd/Twr/App (Archives)
Charlestown, Ireland

Feed Status: UP
Listen in your browser - HTML5 player(in browser, HTML5)
Click here to listen with your own player(launches your MP3 player)


EIKN Flight Activity (Flightaware)

Listeners: 0 out of 1831 total

Connaught Ground: 121.900
Connaught Tower: 130.700
Shannon Low Level: 119.075

EINN Shannon Control High (East) (Archives)
Shannon, Ireland

Feed Status: UP
Listen in your browser - HTML5 player(in browser, HTML5)
Click here to listen with your own player(launches your MP3 player)

EINN 020130Z 25016KT 9999 FEW011 BKN019 BKN050 10/08 Q1026 NOSIG

EINN Flight Activity (Flightaware)

Listeners: 0 out of 1831 total

Shannon Clearance (Oceanic only): 121.700
Shannon Control: 134.260
Shannon Control: 134.630
Shannon Control: 135.230
Shannon Control: 135.600
Shannon Control: 136.255
Shannon Control (BABAN/DEVOL Sector): 132.150

EINN Shannon Control High (West/Coastal) (Archives)
Shannon, Ireland

Feed Status: UP
Listen in your browser - HTML5 player(in browser, HTML5)
Click here to listen with your own player(launches your MP3 player)

EINN 020130Z 25016KT 9999 FEW011 BKN019 BKN050 10/08 Q1026 NOSIG

EINN Flight Activity (Flightaware)

Listeners: 1 out of 1831 total

Shannon Control: 131.150
Shannon Control: 125.880
Shannon Control: 120.040
Shannon Control: 122.980
Shannon Control: 127.130
Shannon Control: 129.665
Shannon Control: 133.360

EINN Shannon Control Low (Archives)
Shannon, Ireland

Feed Status: UP
Listen in your browser - HTML5 player(in browser, HTML5)
Click here to listen with your own player(launches your MP3 player)

EINN 020130Z 25016KT 9999 FEW011 BKN019 BKN050 10/08 Q1026 NOSIG

EINN Flight Activity (Flightaware)

Listeners: 0 out of 1831 total

Shannon Control (Low): 119.080
Shannon Control Low: 124.700

EINN Twr/App #1 (Archives)
Shannon, Ireland

Feed Status: UP
Listen in your browser - HTML5 player(in browser, HTML5)
Click here to listen with your own player(launches your MP3 player)

EINN 020130Z 25016KT 9999 FEW011 BKN019 BKN050 10/08 Q1026 NOSIG

EINN Flight Activity (Flightaware)

Listeners: 1 out of 1831 total

Aer Lingus Ops: 131.500
Service Air Ops: 131.450
Shannon Approach Radar: 121.400
Shannon Control: Misc
Shannon Ground: 121.800
Shannon Tower: 118.700
Sig Ops (Pre-Clearance): 131.590

ENAL Twr/App (Archives)
Alesund, Norway

Feed Status: UP
Listen in your browser - HTML5 player(in browser, HTML5)
Click here to listen with your own player(launches your MP3 player)

ENAL 020150Z AUTO 17007KT 9999 FEW006/// SCT009/// 00/M01 Q1010

ENAL Flight Activity (Flightaware)

Listeners: 0 out of 1831 total

More Approach: 129.325
More Approach: 119.350
Vigra Tower: 118.100

ENAT Twr/App/Control
Alta, Norway

Feed Status: DOWN
Offline since: 2023-02-02 01:00:21 UTC

ENAT 020150Z AUTO 21003KT 160V260 9999 SCT016/// M10/M11 Q1005 RMK WIND 700FT 18004KT

Alta Tower (to boat, Harbour Channel 12): 156.600
Alta Tower (to vehicle): 462.400
Alta Tower/Approach: 120.400
Norway Control: 126.700

ENBO Approach (Archives)
Bodo, Norway

Feed Status: UP
Listen in your browser - HTML5 player(in browser, HTML5)
Click here to listen with your own player(launches your MP3 player)

ENBO 020150Z AUTO 12009KT 9999 OVC053/// M04/M05 Q1005

ENBO Flight Activity (Flightaware)

Listeners: 0 out of 1831 total

Bodo Approach: 119.700

ENBO Tower (Archives)
Bodo, Norway

Feed Status: UP
Listen in your browser - HTML5 player(in browser, HTML5)
Click here to listen with your own player(launches your MP3 player)

ENBO 020150Z AUTO 12009KT 9999 OVC053/// M04/M05 Q1005

ENBO Flight Activity (Flightaware)

Listeners: 1 out of 1831 total

Bodo Tower: 118.100

ENCN Tower/Approach (Archives)
Kristiansand, Norway

Feed Status: UP
Listen in your browser - HTML5 player(in browser, HTML5)
Click here to listen with your own player(launches your MP3 player)

ENCN 020150Z AUTO 06004KT 8000 NCD M03/M03 Q1009

ENCN Flight Activity (Flightaware)

Listeners: 0 out of 1831 total

Kjevik Tower: 118.100
Kjevik Tower/Approach: 119.950

ENGM App/Polaris ACC (Archives)
Honefoss, Norway

Feed Status: UP
Listen in your browser - HTML5 player(in browser, HTML5)
Click here to listen with your own player(launches your MP3 player)

ENEG Flight Activity (Flightaware)

Listeners: 0 out of 1831 total

ENGM Approach (East): 118.475
ENGM Approach (West): 120.450
Polaris ACC Sector 4: 118.875
Polaris ACC Sector 7: 124.775
Polaris ACC Sector 8: 134.350

ENEV Twr/App/ACC (Archives)
Evenes, Norway

Feed Status: UP
Listen in your browser - HTML5 player(in browser, HTML5)
Click here to listen with your own player(launches your MP3 player)

ENEV 020150Z 03002KT 9999 -SN FEW010 BKN013 M05/M05 Q1005 RMK WIND 1400FT VRB03KT

ENEV Flight Activity (Flightaware)

Listeners: 1 out of 1831 total

Evenes Approach: 120.100
Evenes Tower: 118.000
Norway ACC (Bodo Sector 25): 126.450

ENGK Info (Archives)
Arendal, Norway

Feed Status: UP
Listen in your browser - HTML5 player(in browser, HTML5)
Click here to listen with your own player(launches your MP3 player)


ENGK Flight Activity (Flightaware)

Listeners: 0 out of 1831 total

Gullknapp Info: 129.900

ENGM App/Director/Final (Archives)
Oslo, Norway

Feed Status: UP
Listen in your browser - HTML5 player(in browser, HTML5)
Click here to listen with your own player(launches your MP3 player)

ENGM 020150Z VRB02KT CAVOK M10/M12 Q1006

ENGM Flight Activity (Flightaware)

Listeners: 0 out of 1831 total

Oslo Approach: 120.450
Oslo Approach: 118.475
Oslo Approach (Final): 128.900
Oslo Director: 136.400
Oslo Director: 119.975

ENGM App/Polaris ACC (Archives)
Oslo, Norway

Feed Status: UP
Listen in your browser - HTML5 player(in browser, HTML5)
Click here to listen with your own player(launches your MP3 player)

ENEG Flight Activity (Flightaware)

Listeners: 0 out of 1831 total

ENGM Approach (East): 118.475
ENGM Approach (West): 120.450
Polaris ACC Sector 4: 118.875
Polaris ACC Sector 7: 124.775
Polaris ACC Sector 8: 134.350

ENGM Tower (Archives)
Oslo, Norway

Feed Status: UP
Listen in your browser - HTML5 player(in browser, HTML5)
Click here to listen with your own player(launches your MP3 player)

ENGM 020150Z VRB02KT CAVOK M10/M12 Q1006

ENGM Flight Activity (Flightaware)

Listeners: 0 out of 1831 total

Oslo Tower (East): 120.100
Oslo Tower (West): 118.300

ENHD Tower (Archives)
Haugesund, Norway

Feed Status: UP
Listen in your browser - HTML5 player(in browser, HTML5)
Click here to listen with your own player(launches your MP3 player)

ENHD 020150Z AUTO 36006KT 9999 FEW022/// BKN030/// 02/M01 Q1010 RERA

ENHD Flight Activity (Flightaware)

Listeners: 0 out of 1831 total

Karmoy Tower: 120.500

ENJB CTAF (Archives)
Tonsberg, Norway

Feed Status: UP
Listen in your browser - HTML5 player(in browser, HTML5)
Click here to listen with your own player(launches your MP3 player)

ENTO 020150Z AUTO VRB01KT 9999 NCD M05/M08 Q1007

ENTO Flight Activity (Flightaware)

Listeners: 0 out of 1831 total

Jarlsberg CTAF: 122.300

ENLI CTAF
Farsund, Norway

Feed Status: DOWN
Offline since: 2023-02-02 01:02:21 UTC

Lista Traffic/Lista Radio: 126.450

ENOR Sector 8 (Archives)
Moss, Norway

Feed Status: UP
Listen in your browser - HTML5 player(in browser, HTML5)
Click here to listen with your own player(launches your MP3 player)

ENOR Flight Activity (Flightaware)

Listeners: 0 out of 1831 total

Norway Center (FIR) Sector 8: 118.875

ENRY Tower (Archives)
Moss, Norway

Feed Status: UP
Listen in your browser - HTML5 player(in browser, HTML5)
Click here to listen with your own player(launches your MP3 player)

ENRY 020150Z AUTO 36003KT 9999NDV NCD M07/M09 Q1008

ENRY Flight Activity (Flightaware)

Listeners: 0 out of 1831 total

Rygge Tower: 119.500

ENTC Tower/App
Langnes, Norway

Feed Status: DOWN
Offline since: 2023-01-27 11:32:22 UTC

ENTC 020150Z 24003KT 9999 VV004 M04/M04 Q1006 RMK WIND 2600FT 01011KT

Langnes Tower: 118.300
Langnes VDF (Approach): 123.750

ENTO App/Dep (Archives)
Sandefjord, Norway

Feed Status: UP
Listen in your browser - HTML5 player(in browser, HTML5)
Click here to listen with your own player(launches your MP3 player)

ENTO 020150Z AUTO VRB01KT 9999 NCD M05/M08 Q1007

ENTO Flight Activity (Flightaware)

Listeners: 0 out of 1831 total

Sandefjord Approach (TMA): 134.050

ENTO Control Sector 4 (Archives)
Sandefjord, Norway

Feed Status: UP
Listen in your browser - HTML5 player(in browser, HTML5)
Click here to listen with your own player(launches your MP3 player)

ENTO 020150Z AUTO VRB01KT 9999 NCD M05/M08 Q1007

ENTO Flight Activity (Flightaware)

Listeners: 0 out of 1831 total

Norway control Sector 4: 118.875

ENTO Tower (Archives)
Sandefjord, Norway

Feed Status: UP
Listen in your browser - HTML5 player(in browser, HTML5)
Click here to listen with your own player(launches your MP3 player)

ENTO 020150Z AUTO VRB01KT 9999 NCD M05/M08 Q1007

ENTO Flight Activity (Flightaware)

Listeners: 0 out of 1831 total

Sandefjord Tower: 118.650

ENTO Tower/App (Archives)
Sandefjord, Norway

Feed Status: UP
Listen in your browser - HTML5 player(in browser, HTML5)
Click here to listen with your own player(launches your MP3 player)

ENTO 020150Z AUTO VRB01KT 9999 NCD M05/M08 Q1007

ENTO Flight Activity (Flightaware)

Listeners: 0 out of 1831 total

ENJB Tonsberg Airport - Jarlsberg - CTAF: 122.300
Farris Approach (TCA): 134.050
Sandefjord Tower: 118.650

ENTO Twr/App (Archives)
Sandefjord, Norway

Feed Status: UP
Listen in your browser - HTML5 player(in browser, HTML5)
Click here to listen with your own player(launches your MP3 player)

ENTO 020150Z AUTO VRB01KT 9999 NCD M05/M08 Q1007

ENTO Flight Activity (Flightaware)

Listeners: 0 out of 1831 total

Sandefjord Approach (TMA): 134.050
Sandefjord Tower: 118.650

ENVA Gnd/Twr/App (Archives)
Trondheim, Norway

Feed Status: UP
Listen in your browser - HTML5 player(in browser, HTML5)
Click here to listen with your own player(launches your MP3 player)

ENVA 020150Z AUTO 11010KT 9999 OVC019/// M07/M09 Q1008 RMK WIND 670FT 16005KT

ENVA Flight Activity (Flightaware)

Listeners: 0 out of 1831 total

Trondheim Approach: 118.600
Trondheim Ground: 121.600
Trondheim Tower: 119.400

ENZV Gnd/Twr/App (Archives)
Stavanger, Norway

Feed Status: UP
Listen in your browser - HTML5 player(in browser, HTML5)
Click here to listen with your own player(launches your MP3 player)

ENZV 020150Z 34005KT 9999 -DZ FEW010 SCT027 BKN041 03/01 Q1010

ENZV Flight Activity (Flightaware)

Listeners: 2 out of 1831 total

Sola Approach/Departure: 119.600
Sola Ground: 121.750
Sola Tower: 118.350

EPGD Tower/Approach
Gdansk, Poland

Feed Status: DOWN
Offline since: 2022-11-28 02:06:39 UTC

EPGD 020130Z 26012KT 9999 BKN014 BKN044 02/01 Q0998

Gdansk Approach: 127.275
Gdansk Tower: 118.100

EPKK Tower/App (Archives)
Krakow, Poland

Feed Status: UP
Listen in your browser - HTML5 player(in browser, HTML5)
Click here to listen with your own player(launches your MP3 player)

EPKK 020130Z 24011KT 3200 SHSNRA BKN004 BKN009CB 01/M00 Q1007

EPKK Flight Activity (Flightaware)

Listeners: 1 out of 1831 total

Krakow Approach: 121.075
Krakow Approach: 123.255
Krakow Tower: 123.255

EPKR CTAF (Archives)
Krosno, Poland

Feed Status: UP
Listen in your browser - HTML5 player(in browser, HTML5)
Click here to listen with your own player(launches your MP3 player)

EPKR Flight Activity (Flightaware)

Listeners: 0 out of 1831 total

Krosno CTAF: 119.555

EPKT Del/Twr/App (Archives)
Katowice, Poland

Feed Status: UP
Listen in your browser - HTML5 player(in browser, HTML5)
Click here to listen with your own player(launches your MP3 player)

EPKT 020130Z 27010KT 9999 -SN OVC004 00/00 Q1007

EPKT Flight Activity (Flightaware)

Listeners: 0 out of 1831 total

Katowice Delivery: 121.800
Katowice Tower: 129.250
Krakow Approach: 135.400
Krakow Approach: 121.075

EPKT Delivery/Approach (Archives)
Katowice, Poland

Feed Status: UP
Listen in your browser - HTML5 player(in browser, HTML5)
Click here to listen with your own player(launches your MP3 player)

EPKT 020130Z 27010KT 9999 -SN OVC004 00/00 Q1007

EPKT Flight Activity (Flightaware)

Listeners: 0 out of 1831 total

Katowice Delivery: 121.800
Krakow Approach: 121.075

EPKT Tower/Approach (Archives)
Katowice, Poland

Feed Status: UP
Listen in your browser - HTML5 player(in browser, HTML5)
Click here to listen with your own player(launches your MP3 player)

EPKT 020130Z 27010KT 9999 -SN OVC004 00/00 Q1007

EPKT Flight Activity (Flightaware)

Listeners: 0 out of 1831 total

Katowice Tower: 129.250
Krakow Approach: 135.400

EPLL Tower (Archives)
Lodz, Poland

Feed Status: UP
Listen in your browser - HTML5 player(in browser, HTML5)
Click here to listen with your own player(launches your MP3 player)

EPLL 020130Z 26013KT 9999 SCT007 BKN015 02/01 Q1004

EPLL Flight Activity (Flightaware)

Listeners: 0 out of 1831 total

Lodz Tower: 124.230

EPLS CTAF/Radio (Archives)
Leszno, Poland

Feed Status: UP
Listen in your browser - HTML5 player(in browser, HTML5)
Click here to listen with your own player(launches your MP3 player)

EPLS Flight Activity (Flightaware)

Listeners: 0 out of 1831 total

Leszno Radio: 122.305

EPPO Twr/App/FIS (Archives)
Poznan, Poland

Feed Status: UP
Listen in your browser - HTML5 player(in browser, HTML5)
Click here to listen with your own player(launches your MP3 player)

EPPO 020130Z 26010KT 9999 BKN018 OVC040 03/02 Q1004

EPPO Flight Activity (Flightaware)

Listeners: 0 out of 1831 total

Poznan Approach: 129.025
Poznan Approach: 127.225
Poznan FIS: 126.300
Poznan Tower: 119.975

EPRZ Del/Twr/EPWW Radar
Jasionka, Poland

Feed Status: DOWN
Offline since: 2022-02-26 08:35:38 UTC

EPRZ 020130Z 24012KT 9999 -SHRA SCT006 BKN012CB 02/00 Q1005

EPWW Radar: 134.175
EPWW Radar: 120.950
Rzeszow Delivery: 121.800
Rzeszow Tower: 126.800

EPWA Approach #1 (Archives)
Warsaw, Poland

Feed Status: UP
Listen in your browser - HTML5 player(in browser, HTML5)
Click here to listen with your own player(launches your MP3 player)

EPWA 020130Z 26010KT 8000 -SHRASN BKN007 BKN013CB 01/00 Q1002 TEMPO BKN016

EPWA Flight Activity (Flightaware)

Listeners: 137 out of 1831 total

Warsaw Approach: 128.805

EPWA Approach #2 (Archives)
Warsaw, Poland

Feed Status: UP
Listen in your browser - HTML5 player(in browser, HTML5)
Click here to listen with your own player(launches your MP3 player)

EPWA 020130Z 26010KT 8000 -SHRASN BKN007 BKN013CB 01/00 Q1002 TEMPO BKN016

EPWA Flight Activity (Flightaware)

Listeners: 0 out of 1831 total

Warsaw Approach: 125.055

EPWA Ground (Archives)
Warsaw, Poland

Feed Status: UP
Listen in your browser - HTML5 player(in browser, HTML5)
Click here to listen with your own player(launches your MP3 player)

EPWA 020130Z 26010KT 8000 -SHRASN BKN007 BKN013CB 01/00 Q1002 TEMPO BKN016

EPWA Flight Activity (Flightaware)

Listeners: 0 out of 1831 total

Warsaw Ground: 121.900

EPWA Tower (Archives)
Warsaw, Poland

Feed Status: UP
Listen in your browser - HTML5 player(in browser, HTML5)
Click here to listen with your own player(launches your MP3 player)

EPWA 020130Z 26010KT 8000 -SHRASN BKN007 BKN013CB 01/00 Q1002 TEMPO BKN016

EPWA Flight Activity (Flightaware)

Listeners: 0 out of 1831 total

Warsaw Tower: 118.300

EPWR Twr/App
Wroclaw, Poland

Feed Status: DOWN
Offline since: 2023-01-12 12:42:39 UTC

EPPO 020130Z 26010KT 9999 BKN018 OVC040 03/02 Q1004

Poznan Approach (South): 127.225

EPRZ Del/Twr/EPWW Radar
Jasionka, Poland

Feed Status: DOWN
Offline since: 2022-02-26 08:35:38 UTC

EPRZ 020130Z 24012KT 9999 -SHRA SCT006 BKN012CB 02/00 Q1005

EPWW Radar: 134.175
EPWW Radar: 120.950
Rzeszow Delivery: 121.800
Rzeszow Tower: 126.800

ESMQ Tower (Archives)
Kalmar, Sweden

Feed Status: UP
Listen in your browser - HTML5 player(in browser, HTML5)
Click here to listen with your own player(launches your MP3 player)

ESMQ 020150Z AUTO 35009KT 9999 OVC007/// 01/00 Q1000

ESMQ Flight Activity (Flightaware)

Listeners: 1 out of 1831 total

Kalmar Tower: 130.805

ESMS Radar (Archives)
Svedala, Sweden

Feed Status: UP
Listen in your browser - HTML5 player(in browser, HTML5)
Click here to listen with your own player(launches your MP3 player)

ESMS 020150Z 32019KT 9999 OVC013 03/01 Q1002

ESMS Flight Activity (Flightaware)

Listeners: 1 out of 1831 total

Sweden Control (Sector L, Malmo): 134.980

ESMS Tower (Archives)
Svedala, Sweden

Feed Status: UP
Listen in your browser - HTML5 player(in browser, HTML5)
Click here to listen with your own player(launches your MP3 player)

ESMS 020150Z 32019KT 9999 OVC013 03/01 Q1002

ESMS Flight Activity (Flightaware)

Listeners: 0 out of 1831 total

Malmo Tower: 118.800

ESOE Tower/Control (Archives)
Orebro, Sweden

Feed Status: UP
Listen in your browser - HTML5 player(in browser, HTML5)
Click here to listen with your own player(launches your MP3 player)

ESOE 020150Z 29003KT CAVOK M06/M08 Q1005

ESOE Flight Activity (Flightaware)

Listeners: 0 out of 1831 total

Orebro Tower: 120.275
Orebro Tower: 120.280
Sweden Control: 131.125
Sweden Control (aircraft only): 131.125

ESPA Twr/Control (Archives)
Lulea, Sweden

Feed Status: UP
Listen in your browser - HTML5 player(in browser, HTML5)
Click here to listen with your own player(launches your MP3 player)

ESPA 020150Z AUTO 33012KT 9999 NCD M07/M08 Q1001

ESPA Flight Activity (Flightaware)

Listeners: 0 out of 1831 total

Emergency/Guard: 121.500
Kallax Control: 125.450
Kallax Tower: 128.200
Sweden Control North: 131.050

ESSG Misc (Archives)
Ludvika, Sweden

Feed Status: UP
Listen in your browser - HTML5 player(in browser, HTML5)
Click here to listen with your own player(launches your MP3 player)

ESSG Flight Activity (Flightaware)

Listeners: 0 out of 1831 total

Borlange Tower: 127.305
Club Frequency: 123.375
Club Frequency: 123.450
Club Frequency: 123.425
Club Frequency: 123.525
Club Frequency: 123.350
Club Frequency: 123.300
Club Frequency: 123.200
Club Frequency: 123.550
Club Frequency: 123.600
Club Frequency: 123.650
Emergency/Guard: 121.500
Hagfors Airport: 122.230
Karlstad Airport: 119.455
Ludvika Club Freq: 123.150
Mora Airport: 119.055
Orebro Airport: 120.280
Orsa Club Frequency: 123.400
Orsa Club Frequency: 123.500
Scandinavian Mountains Airport: 124.460
Search and Rescue: 123.100
Sweden Control: 131.055
Sweden Control: 131.125
Sweden Control: 131.155
Sweden Control: 132.765
Sweden Control: 131.130
Sweden Control: 129.180
Sweden Control: 128.630
Sweden Control: 132.150
Torsby Airport: 122.055
Vasteras Control: 125.955

ESSL Twr/App/Control (Archives)
Linkoping, Sweden

Feed Status: UP
Listen in your browser - HTML5 player(in browser, HTML5)
Click here to listen with your own player(launches your MP3 player)

ESSL 020150Z AUTO 34008KT 310V020 9999 OVC010/// M02/M04 Q1003

ESSL Flight Activity (Flightaware)

Listeners: 1 out of 1831 total

Emergency/Guard: 121.500
Linkoping Tower: 118.800
Linkoping Tower (Secondary): 123.400
Ostgota Control: 127.350
Ostgota Control: 126.400
Ostgota Control: 135.850
Ostgota Control: 132.950
Ostgota Control: 128.700
Ostgota Control (Malmen Sector): 133.100
Ostgota Control/Sweden Control: 118.400

ESSP Twr/App/Control (Archives)
Norrkoping, Sweden

Feed Status: UP
Listen in your browser - HTML5 player(in browser, HTML5)
Click here to listen with your own player(launches your MP3 player)

ESSP 020150Z 34007KT 9999 BKN011 BKN028 M02/M04 Q1003

ESSP Flight Activity (Flightaware)

Listeners: 0 out of 1831 total

Kungsangen Tower: 120.355
Osgota Approach/Departure: 132.955
Sweden Control: 118.280
Sweden Control: 118.405
Sweden Control: 134.455

ESVQ CTAF
Koping, Sweden

Feed Status: DOWN
Offline since: 2021-09-28 07:56:21 UTC

Koping CTAF: 123.150

EVRA Approach (Archives)
Riga, Latvia

Feed Status: UP
Listen in your browser - HTML5 player(in browser, HTML5)
Click here to listen with your own player(launches your MP3 player)

EVRA 020150Z 00000KT 6000 FEW007 OVC020 M00/M01 Q0996 NOSIG

EVRA Flight Activity (Flightaware)

Listeners: 0 out of 1831 total

Riga Approach: 129.925

EVRA CTAF (Archives)
Riga, Latvia

Feed Status: UP
Listen in your browser - HTML5 player(in browser, HTML5)
Click here to listen with your own player(launches your MP3 player)

EVRA 020150Z 00000KT 6000 FEW007 OVC020 M00/M01 Q0996 NOSIG

EVRA Flight Activity (Flightaware)

Listeners: 0 out of 1831 total

Riga Approach (evenings): 134.850
Riga CTAF: 123.950

EVRA FIC (Archives)
Riga, Latvia

Feed Status: UP
Listen in your browser - HTML5 player(in browser, HTML5)
Click here to listen with your own player(launches your MP3 player)

EVRA 020150Z 00000KT 6000 FEW007 OVC020 M00/M01 Q0996 NOSIG

EVRA Flight Activity (Flightaware)

Listeners: 0 out of 1831 total

Riga FIC: 120.225

EVRA Tower/Guard (Archives)
Riga, Latvia

Feed Status: UP
Listen in your browser - HTML5 player(in browser, HTML5)
Click here to listen with your own player(launches your MP3 player)

EVRA 020150Z 00000KT 6000 FEW007 OVC020 M00/M01 Q0996 NOSIG

EVRA Flight Activity (Flightaware)

Listeners: 0 out of 1831 total

Emergency/Guard: 121.500
Riga Tower: 118.100

EYVI Twr/App/Misc
Vilnius, Lithuania

Feed Status: DOWN
Offline since: 2023-02-01 11:53:04 UTC

EYVI 020150Z 27007KT 5000 BR OVC002 00/00 Q0997 NOSIG

Emergency / GUARD: 121.500
FlyLAL, AirBaltic transit services: 131.900
FlyLAL, AirBaltic transit services: 131.600
FlyLAL, AirBaltic transit services: 131.500
Kaunas Approach (EYKA): 124.200
Vilnius Approach: 120.700
Vilnius Control: 132.275
Vilnius Control: 133.425
Vilnius Control: 133.300
Vilnius FIS: 123.850
Vilnius Tower: 118.200
Zokniai A/G (mil): 122.775

LBBG Twr/App (Archives)
Burgas, Bulgaria

Feed Status: UP
Listen in your browser - HTML5 player(in browser, HTML5)
Click here to listen with your own player(launches your MP3 player)

LBBG 020200Z AUTO 24008KT 9999 NSC 02/M02 Q1015 NOSIG

LBBG Flight Activity (Flightaware)

Listeners: 0 out of 1831 total

Burgas Approach: 125.100
Burgas Tower: 118.000

LBPD Tower (Archives)
Plovdiv, Bulgaria

Feed Status: UP
Listen in your browser - HTML5 player(in browser, HTML5)
Click here to listen with your own player(launches your MP3 player)

LBSF 020200Z AUTO 28010KT 9999 FEW040/// 02/M02 Q1017 NOSIG

LBSF Flight Activity (Flightaware)

Listeners: 0 out of 1831 total

Plovdiv Tower: 125.500
Plovdiv Tower: 133.600

LBSF ATIS (Archives)
Sofia, Bulgaria

Feed Status: UP
Listen in your browser - HTML5 player(in browser, HTML5)
Click here to listen with your own player(launches your MP3 player)

LBSF 020200Z AUTO 28010KT 9999 FEW040/// 02/M02 Q1017 NOSIG

LBSF Flight Activity (Flightaware)

Listeners: 0 out of 1831 total

Sofia ATIS: 126.680

LBSF Sofia Control East (Archives)
Sofia, Bulgaria

Feed Status: UP
Listen in your browser - HTML5 player(in browser, HTML5)
Click here to listen with your own player(launches your MP3 player)

LBSF 020200Z AUTO 28010KT 9999 FEW040/// 02/M02 Q1017 NOSIG

LBSF Flight Activity (Flightaware)

Listeners: 0 out of 1831 total

Sofia Control (East/Middle Sector): 129.100
Sofia Control (Varna Sector): 134.700

LBSF Twr/App #1 (Archives)
Sofia, Bulgaria

Feed Status: UP
Listen in your browser - HTML5 player(in browser, HTML5)
Click here to listen with your own player(launches your MP3 player)

LBSF 020200Z AUTO 28010KT 9999 FEW040/// 02/M02 Q1017 NOSIG

LBSF Flight Activity (Flightaware)

Listeners: 0 out of 1831 total

Sofia Approach: 123.700
Sofia Approach: 129.900
Sofia Tower: 118.100
Sofia Tower: 120.200

LBSF Twr/App #2 (Archives)
Sofia, Bulgaria

Feed Status: UP
Listen in your browser - HTML5 player(in browser, HTML5)
Click here to listen with your own player(launches your MP3 player)

LBSF 020200Z AUTO 28010KT 9999 FEW040/// 02/M02 Q1017 NOSIG

LBSF Flight Activity (Flightaware)

Listeners: 0 out of 1831 total

Sofia Approach: 123.700
Sofia Tower: 118.100

LHBP Approach (Archives)
Budapest, Hungary

Feed Status: UP
Listen in your browser - HTML5 player(in browser, HTML5)
Click here to listen with your own player(launches your MP3 player)

LHBP 020200Z 28015KT 9999 FEW025 SCT038 04/01 Q1013 NOSIG

LHBP Flight Activity (Flightaware)

Listeners: 0 out of 1831 total

Budapest Approach: 122.975
Budapest Approach (Upper): 123.860

LHBP Approach (Director) (Archives)
Budapest, Hungary

Feed Status: UP
Listen in your browser - HTML5 player(in browser, HTML5)
Click here to listen with your own player(launches your MP3 player)

LHBP 020200Z 28015KT 9999 FEW025 SCT038 04/01 Q1013 NOSIG

LHBP Flight Activity (Flightaware)

Listeners: 0 out of 1831 total

Budapest Director: 119.510

LHBP ATIS (Archives)
Budapest, Hungary

Feed Status: UP
Listen in your browser - HTML5 player(in browser, HTML5)
Click here to listen with your own player(launches your MP3 player)

LHBP 020200Z 28015KT 9999 FEW025 SCT038 04/01 Q1013 NOSIG

LHBP Flight Activity (Flightaware)

Listeners: 0 out of 1831 total

Budapest ATIS: 132.380

LHBP Clearance Delivery (Archives)
Budapest, Hungary

Feed Status: UP
Listen in your browser - HTML5 player(in browser, HTML5)
Click here to listen with your own player(launches your MP3 player)

LHBP 020200Z 28015KT 9999 FEW025 SCT038 04/01 Q1013 NOSIG

LHBP Flight Activity (Flightaware)

Listeners: 0 out of 1831 total

Budapest Clearance Delivery: 134.540

LHBP Ground (Archives)
Budapest, Hungary

Feed Status: UP
Listen in your browser - HTML5 player(in browser, HTML5)
Click here to listen with your own player(launches your MP3 player)

LHBP 020200Z 28015KT 9999 FEW025 SCT038 04/01 Q1013 NOSIG

LHBP Flight Activity (Flightaware)

Listeners: 0 out of 1831 total

Budapest Ground: 121.910

LHBP Info (Archives)
Budapest, Hungary

Feed Status: UP
Listen in your browser - HTML5 player(in browser, HTML5)
Click here to listen with your own player(launches your MP3 player)

LHBP 020200Z 28015KT 9999 FEW025 SCT038 04/01 Q1013 NOSIG

LHBP Flight Activity (Flightaware)

Listeners: 0 out of 1831 total

Budapest Info: 119.350

LHBP Tower #2 (Archives)
Budapest, Hungary

Feed Status: UP
Listen in your browser - HTML5 player(in browser, HTML5)
Click here to listen with your own player(launches your MP3 player)

LHBP 020200Z 28015KT 9999 FEW025 SCT038 04/01 Q1013 NOSIG

LHBP Flight Activity (Flightaware)

Listeners: 0 out of 1831 total

Budapest Tower: 118.100

LHBP Tower (Backup) (Archives)
Budapest, Hungary

Feed Status: UP
Listen in your browser - HTML5 player(in browser, HTML5)
Click here to listen with your own player(launches your MP3 player)

LHBP 020200Z 28015KT 9999 FEW025 SCT038 04/01 Q1013 NOSIG

LHBP Flight Activity (Flightaware)

Listeners: 0 out of 1831 total


LHBP Twr/Info (Archives)
Budapest, Hungary

Feed Status: UP
Listen in your browser - HTML5 player(in browser, HTML5)
Click here to listen with your own player(launches your MP3 player)

LHBP 020200Z 28015KT 9999 FEW025 SCT038 04/01 Q1013 NOSIG

LHBP Flight Activity (Flightaware)

Listeners: 0 out of 1831 total

Budapest Info: 119.350
Budapest Tower: 118.100

LHCC Control (East/West)
Budapest, Hungary

Feed Status: DOWN
Offline since: 2023-02-02 01:59:39 UTC

LHBP 020200Z 28015KT 9999 FEW025 SCT038 04/01 Q1013 NOSIG

Budapest Control (East Low Sector): 120.375
Budapest Control (West Low Sector): 133.200

LHDC Info/Tower (Archives)
Debrecen, Hungary

Feed Status: UP
Listen in your browser - HTML5 player(in browser, HTML5)
Click here to listen with your own player(launches your MP3 player)

LHDC 020115Z AUTO 23011KT 9999 FEW038 02/00 Q1012 NOSIG

LHDC Flight Activity (Flightaware)

Listeners: 0 out of 1831 total

Debrecen Info/Tower: 125.900

LHEM CTAF
Esztergom, Hungary

Feed Status: DOWN
Offline since: 2022-08-23 06:58:26 UTC

Esztergom CTAF: 126.850

LHOY CTAF
Ocseny, Hungary

Feed Status: DOWN
Offline since: 2022-01-07 14:33:22 UTC

Ocseny CTAF: 122.830

LHPR Info/AFIS
Gyor, Hungary

Feed Status: DOWN
Offline since: 2022-07-11 08:08:23 UTC

LHPR 020115Z AUTO 28017KT 9999 -SHRA FEW016 BKN052 03/01 Q1015

Gyor AFIS: 129.910

LJLJ Info (Archives)
Ljubljana, Slovenia

Feed Status: UP
Listen in your browser - HTML5 player(in browser, HTML5)
Click here to listen with your own player(launches your MP3 player)

LJLJ 020130Z 28002KT CAVOK M05/M06 Q1018 NOSIG

LJLJ Flight Activity (Flightaware)

Listeners: 0 out of 1831 total

Ljubljana Info: 118.475

LJLJ Radar (Archives)
Ljubljana, Slovenia

Feed Status: UP
Listen in your browser - HTML5 player(in browser, HTML5)
Click here to listen with your own player(launches your MP3 player)

LJLJ 020130Z 28002KT CAVOK M05/M06 Q1018 NOSIG

LJLJ Flight Activity (Flightaware)

Listeners: 0 out of 1831 total

Ljubljana Approach: 135.275

LJLJ Tower (Archives)
Ljubljana, Slovenia

Feed Status: UP
Listen in your browser - HTML5 player(in browser, HTML5)
Click here to listen with your own player(launches your MP3 player)

LJLJ 020130Z 28002KT CAVOK M05/M06 Q1018 NOSIG

LJLJ Flight Activity (Flightaware)

Listeners: 0 out of 1831 total

Ljubljana Tower: 118.000

LJMB Tower (Archives)
Maribor, Slovenia

Feed Status: UP
Listen in your browser - HTML5 player(in browser, HTML5)
Click here to listen with your own player(launches your MP3 player)

LJMB 020130Z AUTO 00000KT 9999 NSC 00/M03 Q1016

LJMB Flight Activity (Flightaware)

Listeners: 0 out of 1831 total

Maribor Tower/Approach: 119.200

LJMS CTAF
Murska Sobota, Slovenia

Feed Status: DOWN
Offline since: 2022-11-12 04:27:06 UTC

Murska Sobota Aerodrome Radio: 123.500

LJPZ Tower (Archives)
Secovlje, Slovenia

Feed Status: UP
Listen in your browser - HTML5 player(in browser, HTML5)
Click here to listen with your own player(launches your MP3 player)

LJPZ 020130Z AUTO 13007KT 1400 R15/P2000 BR FEW022/// 01/M00 Q1020

LJPZ Flight Activity (Flightaware)

Listeners: 0 out of 1831 total

Portoroz Tower: 124.875

LKPM Tower (Archives)
Pribram, Czech Republic

Feed Status: UP
Listen in your browser - HTML5 player(in browser, HTML5)
Click here to listen with your own player(launches your MP3 player)

LKPM Flight Activity (Flightaware)

Listeners: 0 out of 1831 total

Pribram Tower: 118.755

LKAA FIR (High) (Archives)
Prague, Czech Republic

Feed Status: UP
Listen in your browser - HTML5 player(in browser, HTML5)
Click here to listen with your own player(launches your MP3 player)

LKAA Flight Activity (Flightaware)

Listeners: 0 out of 1831 total

LKAA FIR Sector West High / Praha Radar : 132.065

LKAA FIR (Low) (Archives)
Prague, Czech Republic

Feed Status: UP
Listen in your browser - HTML5 player(in browser, HTML5)
Click here to listen with your own player(launches your MP3 player)

LKAA Flight Activity (Flightaware)

Listeners: 0 out of 1831 total

LKAA FIR Sector West Low / Praha Radar: 120.275

LKPR Approach (Archives)
Prague, Czech Republic

Feed Status: UP
Listen in your browser - HTML5 player(in browser, HTML5)
Click here to listen with your own player(launches your MP3 player)

LKPR 020130Z 27012KT 9999 BKN039 02/M02 Q1013 NOSIG

LKPR Flight Activity (Flightaware)

Listeners: 1 out of 1831 total

Prague Approach/Radar: 127.580

LKPR Clearance Del (Archives)
Prague, Czech Republic

Feed Status: UP
Listen in your browser - HTML5 player(in browser, HTML5)
Click here to listen with your own player(launches your MP3 player)

LKPR 020130Z 27012KT 9999 BKN039 02/M02 Q1013 NOSIG

LKPR Flight Activity (Flightaware)

Listeners: 0 out of 1831 total

Prague/Ruzyne Clearance Delivery: 120.060

LKPR Director/Ruzyne Radar (Archives)
Prague, Czech Republic

Feed Status: UP
Listen in your browser - HTML5 player(in browser, HTML5)
Click here to listen with your own player(launches your MP3 player)

LKPR 020130Z 27012KT 9999 BKN039 02/M02 Q1013 NOSIG

LKPR Flight Activity (Flightaware)

Listeners: 1 out of 1831 total

Prague Director/Ruzyne Radar: 119.010

LKPR Ground (Archives)
Prague, Czech Republic

Feed Status: UP
Listen in your browser - HTML5 player(in browser, HTML5)
Click here to listen with your own player(launches your MP3 player)

LKPR 020130Z 27012KT 9999 BKN039 02/M02 Q1013 NOSIG

LKPR Flight Activity (Flightaware)

Listeners: 1 out of 1831 total

Prague/Ruzyne Ground: 121.910

LKPR Tower (Archives)
Prague, Czech Republic

Feed Status: UP
Listen in your browser - HTML5 player(in browser, HTML5)
Click here to listen with your own player(launches your MP3 player)

LKPR 020130Z 27012KT 9999 BKN039 02/M02 Q1013 NOSIG

LKPR Flight Activity (Flightaware)

Listeners: 3 out of 1831 total

Prague/Ruzyne Tower: 134.560

LKTB Gnd/Twr/Radar (Archives)
Brno, Czech Republic

Feed Status: UP
Listen in your browser - HTML5 player(in browser, HTML5)
Click here to listen with your own player(launches your MP3 player)

LKTB 020130Z 28011KT 9999 -RA FEW016 BKN020 03/M00 Q1012 NOSIG

LKTB Flight Activity (Flightaware)

Listeners: 0 out of 1831 total

Brno Ground: 125.430
Brno Handling: 131.800
Brno Tower: 119.605
Praha Radar (Approach): 127.350

LMML GndTwr/App/Control
Luqa, Malta

Feed Status: DOWN
Offline since: 2023-01-26 16:00:05 UTC

LMML 020145Z AUTO 25005KT CAVOK 11/08 Q1024 NOSIG

Emergency/Guard: 121.500
Luqa Ground: 121.600
Luqa Radar: 128.150
Luqa Tower: 135.100
Malta Radar - East (Primary): 122.775
Malta Radar - East (Secondary): 123.625
Malta Radar - UHF: 284.500
Malta Radar - West (Primary): 130.975
Malta Radar - West (Secondary): 127.525

LPLA Twr/App (Archives)
Lajes, Portugal

Feed Status: UP
Listen in your browser - HTML5 player(in browser, HTML5)
Click here to listen with your own player(launches your MP3 player)

LPLA 020100Z /////KT 9999 FEW020 11/11 Q1029

LPLA Flight Activity (Flightaware)

Listeners: 0 out of 1831 total

Lajes Approach: 135.000
Lajes Tower: 122.100

LPMA App/LPPC Center
Madeira, Portugal

Feed Status: DOWN
Offline since: 2022-11-13 20:36:06 UTC

Lisboa Control (Madeira Sector): 132.255
Madeira Approach: 119.605

LPMA Approach (Archives)
Madeira, Portugal

Feed Status: UP
Listen in your browser - HTML5 player(in browser, HTML5)
Click here to listen with your own player(launches your MP3 player)

LPMA 020130Z 04008KT 360V120 9999 SCT016 FEW018TCU 17/09 Q1025

LPMA Flight Activity (Flightaware)

Listeners: 0 out of 1831 total

Madeira Approach: 119.605

LPPR Approach #1 (Archives)
Porto, Portugal

Feed Status: UP
Listen in your browser - HTML5 player(in browser, HTML5)
Click here to listen with your own player(launches your MP3 player)

LPPR 020130Z 11007KT CAVOK 07/04 Q1027

LPPR Flight Activity (Flightaware)

Listeners: 1 out of 1831 total

Porto Approach: 121.105

LPPT Approach (Archives)
Lisbon, Portugal

Feed Status: UP
Listen in your browser - HTML5 player(in browser, HTML5)
Click here to listen with your own player(launches your MP3 player)

LPPT 020130Z 02003KT CAVOK 06/03 Q1027

LPPT Flight Activity (Flightaware)

Listeners: 2 out of 1831 total

Lisbon Approach: 119.105

LRCL Twr/App #1 (Archives)
Cluj-Napoca, Romania

Feed Status: UP
Listen in your browser - HTML5 player(in browser, HTML5)
Click here to listen with your own player(launches your MP3 player)

LRCL 020130Z 29005KT 9999 BKN033 02/M01 Q1011

LRCL Flight Activity (Flightaware)

Listeners: 0 out of 1831 total

Cluj Approach: 126.425
Cluj Tower: 118.705

LRCL Twr/App/ACC (Archives)
Cluj-Napoca, Romania

Feed Status: UP
Listen in your browser - HTML5 player(in browser, HTML5)
Click here to listen with your own player(launches your MP3 player)

LRCL 020130Z 29005KT 9999 BKN033 02/M01 Q1011

LRCL Flight Activity (Flightaware)

Listeners: 0 out of 1831 total

Cluj Approach: 126.425
Cluj Tower: 118.705
Napoc ACC: 127.075

LROP Ground (Archives)
Bucharest, Romania

Feed Status: UP
Listen in your browser - HTML5 player(in browser, HTML5)
Click here to listen with your own player(launches your MP3 player)

LROP 020130Z 25008KT CAVOK M01/M03 Q1013 NOSIG

LROP Flight Activity (Flightaware)

Listeners: 0 out of 1831 total

Bucharest Ground: 121.855

LROP Radar (Archives)
Bucharest, Romania

Feed Status: UP
Listen in your browser - HTML5 player(in browser, HTML5)
Click here to listen with your own player(launches your MP3 player)

LROP 020130Z 25008KT CAVOK M01/M03 Q1013 NOSIG

LROP Flight Activity (Flightaware)

Listeners: 0 out of 1831 total

Bucharest Radar (Arges Mid sector): 121.175
Bucharest Radar (Arges Top Sector): 123.265
Bucharest Radar (Lomos Top Sector): 132.865

LROP Tower/Approach (Archives)
Bucharest, Romania

Feed Status: UP
Listen in your browser - HTML5 player(in browser, HTML5)
Click here to listen with your own player(launches your MP3 player)

LROP 020130Z 25008KT CAVOK M01/M03 Q1013 NOSIG

LROP Flight Activity (Flightaware)

Listeners: 0 out of 1831 total

Bucharest Approach: 119.415
Bucharest Director: 127.155
Bucharest Tower: 118.805

LROP Twr/App/Radar (Archives)
Bucharest, Romania

Feed Status: UP
Listen in your browser - HTML5 player(in browser, HTML5)
Click here to listen with your own player(launches your MP3 player)

LROP 020130Z 25008KT CAVOK M01/M03 Q1013 NOSIG

LROP Flight Activity (Flightaware)

Listeners: 1 out of 1831 total

Bucharest Approach: 119.415
Bucharest Director: 127.155
Bucharest Radar (Arges Mid sector): 121.175
Bucharest Radar (Arges Top Sector): 123.265
Bucharest Radar (Lomos Top Sector): 132.865
Bucharest Tower: 118.805

LRSB Tower/CTAF (Archives)
Sibiu, Romania

Feed Status: UP
Listen in your browser - HTML5 player(in browser, HTML5)
Click here to listen with your own player(launches your MP3 player)

LRSB 020130Z 32008KT 270V350 9999 SCT030 BKN055 03/M01 Q1013

LRSB Flight Activity (Flightaware)

Listeners: 0 out of 1831 total

Sibiu Tower: 121.305

LRTR Tower (Archives)
Timisoara, Romania

Feed Status: UP
Listen in your browser - HTML5 player(in browser, HTML5)
Click here to listen with your own player(launches your MP3 player)

LRTR 020130Z 27009KT 9999 -RA FEW015 SCT023 BKN042 03/02 Q1016

LRTR Flight Activity (Flightaware)

Listeners: 0 out of 1831 total

ARAD Approach: 127.250
Timisoara Tower: 120.100

LSGG Arr/Dep (Archives)
Geneva, Switzerland

Feed Status: UP
Listen in your browser - HTML5 player(in browser, HTML5)
Click here to listen with your own player(launches your MP3 player)

LSGG 020150Z AUTO 27002KT 9999 OVC054 03/M01 Q1030 NOSIG

LSGG Flight Activity (Flightaware)

Listeners: 0 out of 1831 total

Geneva Arrival: 136.255
Geneva Departure: 119.530

LSGG Arrival (Archives)
Geneva, Switzerland

Feed Status: UP
Listen in your browser - HTML5 player(in browser, HTML5)
Click here to listen with your own player(launches your MP3 player)

LSGG 020150Z AUTO 27002KT 9999 OVC054 03/M01 Q1030 NOSIG

LSGG Flight Activity (Flightaware)

Listeners: 0 out of 1831 total

Geneva Arrival: 136.255

LSGG ATIS (Archives)
Geneva, Switzerland

Feed Status: UP
Listen in your browser - HTML5 player(in browser, HTML5)
Click here to listen with your own player(launches your MP3 player)

LSGG 020150Z AUTO 27002KT 9999 OVC054 03/M01 Q1030 NOSIG

LSGG Flight Activity (Flightaware)

Listeners: 0 out of 1831 total

Geneva ATIS: 135.575

LSGG Delta (VFR) (Archives)
Geneva, Switzerland

Feed Status: UP
Listen in your browser - HTML5 player(in browser, HTML5)
Click here to listen with your own player(launches your MP3 player)

LSGG 020150Z AUTO 27002KT 9999 OVC054 03/M01 Q1030 NOSIG

LSGG Flight Activity (Flightaware)

Listeners: 0 out of 1831 total

Geneva Delta (VFR): 119.175

LSGG Departure (Archives)
Geneva, Switzerland

Feed Status: UP
Listen in your browser - HTML5 player(in browser, HTML5)
Click here to listen with your own player(launches your MP3 player)

LSGG 020150Z AUTO 27002KT 9999 OVC054 03/M01 Q1030 NOSIG

LSGG Flight Activity (Flightaware)

Listeners: 0 out of 1831 total

Geneva Departure: 119.530

LSGG Glider (Archives)
Geneva, Switzerland

Feed Status: UP
Listen in your browser - HTML5 player(in browser, HTML5)
Click here to listen with your own player(launches your MP3 player)

LSGG 020150Z AUTO 27002KT 9999 OVC054 03/M01 Q1030 NOSIG

LSGG Flight Activity (Flightaware)

Listeners: 0 out of 1831 total

Geneva Glider: 124.750

LSGG Info (VFR) (Archives)
Geneva, Switzerland

Feed Status: UP
Listen in your browser - HTML5 player(in browser, HTML5)
Click here to listen with your own player(launches your MP3 player)

LSGG 020150Z AUTO 27002KT 9999 OVC054 03/M01 Q1030 NOSIG

LSGG Flight Activity (Flightaware)

Listeners: 0 out of 1831 total

Geneva Information (VFR): 126.350

LSGG Radar Ini N/E/S (Archives)
Geneva, Switzerland

Feed Status: UP
Listen in your browser - HTML5 player(in browser, HTML5)
Click here to listen with your own player(launches your MP3 player)

LSGG 020150Z AUTO 27002KT 9999 OVC054 03/M01 Q1030 NOSIG

LSGG Flight Activity (Flightaware)

Listeners: 0 out of 1831 total

Geneva Radar Initial East: 128.905
Geneva Radar Initial North: 134.030
Geneva Radar Initial South: 124.225

LSGG Radar Initial East (Archives)
Geneva, Switzerland

Feed Status: UP
Listen in your browser - HTML5 player(in browser, HTML5)
Click here to listen with your own player(launches your MP3 player)

LSGG 020150Z AUTO 27002KT 9999 OVC054 03/M01 Q1030 NOSIG

LSGG Flight Activity (Flightaware)

Listeners: 0 out of 1831 total

Geneva Radar Initial East: 128.905

LSGG Radar Initial North (Archives)
Geneva, Switzerland

Feed Status: UP
Listen in your browser - HTML5 player(in browser, HTML5)
Click here to listen with your own player(launches your MP3 player)

LSGG 020150Z AUTO 27002KT 9999 OVC054 03/M01 Q1030 NOSIG

LSGG Flight Activity (Flightaware)

Listeners: 0 out of 1831 total

Geneva Radar Initial North: 134.030

LSGG Radar Initial South (Archives)
Geneva, Switzerland

Feed Status: UP
Listen in your browser - HTML5 player(in browser, HTML5)
Click here to listen with your own player(launches your MP3 player)

LSGG 020150Z AUTO 27002KT 9999 OVC054 03/M01 Q1030 NOSIG

LSGG Flight Activity (Flightaware)

Listeners: 0 out of 1831 total

Geneva Radar Initial South: 124.225

LSGG Radar L1 250-280 (Archives)
Geneva, Switzerland

Feed Status: UP
Listen in your browser - HTML5 player(in browser, HTML5)
Click here to listen with your own player(launches your MP3 player)

LSGG 020150Z AUTO 27002KT 9999 OVC054 03/M01 Q1030 NOSIG

LSGG Flight Activity (Flightaware)

Listeners: 0 out of 1831 total

Geneva Radar L1 FL250-280: 134.850

LSGG Radar L1/L2/L3/L4/L5 (Archives)
Geneva, Switzerland

Feed Status: UP
Listen in your browser - HTML5 player(in browser, HTML5)
Click here to listen with your own player(launches your MP3 player)

LSGG 020150Z AUTO 27002KT 9999 OVC054 03/M01 Q1030 NOSIG

LSGG Flight Activity (Flightaware)

Listeners: 0 out of 1831 total

Geneva Radar L1 FL250-280: 134.850
Geneva Radar L2 FL290-310: 126.050
Geneva Radar L3 FL320-330: 134.315
Geneva Radar L3 FL320-330: 136.015
Geneva Radar L5 FL360-370: 128.155

LSGG Radar L2 290-310 (Archives)
Geneva, Switzerland

Feed Status: UP
Listen in your browser - HTML5 player(in browser, HTML5)
Click here to listen with your own player(launches your MP3 player)

LSGG 020150Z AUTO 27002KT 9999 OVC054 03/M01 Q1030 NOSIG

LSGG Flight Activity (Flightaware)

Listeners: 0 out of 1831 total

Geneva Radar L2 FL290-310: 126.050

LSGG Radar L3 320-330 (Archives)
Geneva, Switzerland

Feed Status: UP
Listen in your browser - HTML5 player(in browser, HTML5)
Click here to listen with your own player(launches your MP3 player)

LSGG 020150Z AUTO 27002KT 9999 OVC054 03/M01 Q1030 NOSIG

LSGG Flight Activity (Flightaware)

Listeners: 0 out of 1831 total

Geneva Radar L3 FL320-330: 134.315

LSGG Radar L4 340-350 (Archives)
Geneva, Switzerland

Feed Status: UP
Listen in your browser - HTML5 player(in browser, HTML5)
Click here to listen with your own player(launches your MP3 player)

LSGG 020150Z AUTO 27002KT 9999 OVC054 03/M01 Q1030 NOSIG

LSGG Flight Activity (Flightaware)

Listeners: 0 out of 1831 total

Geneva Radar L4 FL340-350: 136.015

LSGG Radar L5 360-370 (Archives)
Geneva, Switzerland

Feed Status: UP
Listen in your browser - HTML5 player(in browser, HTML5)
Click here to listen with your own player(launches your MP3 player)

LSGG 020150Z AUTO 27002KT 9999 OVC054 03/M01 Q1030 NOSIG

LSGG Flight Activity (Flightaware)

Listeners: 0 out of 1831 total

Geneva Radar L5 FL360-370: 128.155

LSGS Gnd/Twr/App (Archives)
Sion, Switzerland

Feed Status: UP
Listen in your browser - HTML5 player(in browser, HTML5)
Click here to listen with your own player(launches your MP3 player)

LSGS 020150Z AUTO VRB02KT 9999 BKN085 04/M02 Q1029

LSGS Flight Activity (Flightaware)

Listeners: 0 out of 1831 total

Alpine Jet Service Handling: 131.675
Sion Airport Handling: 131.475
Sion Approach (IFR ARR MIL OFF): 126.825
Sion Ground: 121.700
Sion Tower: 118.275

LSMD Tower (Archives)
Dubendorf, Switzerland

Feed Status: UP
Listen in your browser - HTML5 player(in browser, HTML5)
Click here to listen with your own player(launches your MP3 player)

LSZH 020150Z AUTO 25009KT 9999 FEW024 BKN027 04/M01 Q1028 NOSIG

LSZH Flight Activity (Flightaware)

Listeners: 0 out of 1831 total

Dubendorf Tower: 118.975

LSMP Arrival (Archives)
Payerne, Switzerland

Feed Status: UP
Listen in your browser - HTML5 player(in browser, HTML5)
Click here to listen with your own player(launches your MP3 player)

LSMP 020150Z AUTO 19006KT 9999NDV SCT044 OVC051 04/M01 Q1030 RMK

LSMP Flight Activity (Flightaware)

Listeners: 0 out of 1831 total

Payerne Arrival: 136.350

LSMP Arrival/Tower (Archives)
Payerne, Switzerland

Feed Status: UP
Listen in your browser - HTML5 player(in browser, HTML5)
Click here to listen with your own player(launches your MP3 player)

LSMP 020150Z AUTO 19006KT 9999NDV SCT044 OVC051 04/M01 Q1030 RMK

LSMP Flight Activity (Flightaware)

Listeners: 0 out of 1831 total

Payerne Arrival: 136.350
Payerne Tower: 128.675

LSMP Tower (Archives)
Payerne, Switzerland

Feed Status: UP
Listen in your browser - HTML5 player(in browser, HTML5)
Click here to listen with your own player(launches your MP3 player)

LSMP 020150Z AUTO 19006KT 9999NDV SCT044 OVC051 04/M01 Q1030 RMK

LSMP Flight Activity (Flightaware)

Listeners: 0 out of 1831 total

Payerne Tower: 128.675

LSMV Heli Tower
Davos, Switzerland

Feed Status: DOWN
Offline since: 2023-01-24 13:25:22 UTC

LSMV Tower: 130.700

LSPM AFIS (Archives)
Ambri, Switzerland

Feed Status: UP
Listen in your browser - HTML5 player(in browser, HTML5)
Click here to listen with your own player(launches your MP3 player)

LSPM Flight Activity (Flightaware)

Listeners: 0 out of 1831 total

Ambri AFIS: 118.525

LSZA Tower
Agno, Switzerland

Feed Status: DOWN
Offline since: 2023-02-02 02:12:39 UTC

LSZA 020150Z AUTO VRB01KT 9999 NSC 03/M02 Q1021

Lugano Tower: 120.250

LSZB App/Dep (Archives)
Bern, Switzerland

Feed Status: UP
Listen in your browser - HTML5 player(in browser, HTML5)
Click here to listen with your own player(launches your MP3 player)

LSZB 020150Z AUTO 27004KT 230V290 9999 BKN043 04/M02 Q1029

LSZB Flight Activity (Flightaware)

Listeners: 0 out of 1831 total

Bern Arrival/Departure: 127.325

LSZB ATIS (Archives)
Bern, Switzerland

Feed Status: UP
Listen in your browser - HTML5 player(in browser, HTML5)
Click here to listen with your own player(launches your MP3 player)

LSZB 020150Z AUTO 27004KT 230V290 9999 BKN043 04/M02 Q1029

LSZB Flight Activity (Flightaware)

Listeners: 0 out of 1831 total

Bern ATIS: 125.130

LSZB Clearance Delivery (Archives)
Bern, Switzerland

Feed Status: UP
Listen in your browser - HTML5 player(in browser, HTML5)
Click here to listen with your own player(launches your MP3 player)

LSZB 020150Z AUTO 27004KT 230V290 9999 BKN043 04/M02 Q1029

LSZB Flight Activity (Flightaware)

Listeners: 0 out of 1831 total

Bern Clearance Delivery: 121.905

LSZB Del/Twr/App/Dep (Archives)
Bern, Switzerland

Feed Status: UP
Listen in your browser - HTML5 player(in browser, HTML5)
Click here to listen with your own player(launches your MP3 player)

LSZB 020150Z AUTO 27004KT 230V290 9999 BKN043 04/M02 Q1029

LSZB Flight Activity (Flightaware)

Listeners: 0 out of 1831 total

Bern Arrival/Departure: 127.325
Bern Clearance Delivery: 121.905
Bern Tower: 121.025

LSZB Tower (Archives)
Bern, Switzerland

Feed Status: UP
Listen in your browser - HTML5 player(in browser, HTML5)
Click here to listen with your own player(launches your MP3 player)

LSZB 020150Z AUTO 27004KT 230V290 9999 BKN043 04/M02 Q1029

LSZB Flight Activity (Flightaware)

Listeners: 0 out of 1831 total

Bern Tower: 121.025

LSZB Twr/App/Dep (Archives)
Bern, Switzerland

Feed Status: UP
Listen in your browser - HTML5 player(in browser, HTML5)
Click here to listen with your own player(launches your MP3 player)

LSZB 020150Z AUTO 27004KT 230V290 9999 BKN043 04/M02 Q1029

LSZB Flight Activity (Flightaware)

Listeners: 0 out of 1831 total

Bern Arrival/Departure: 127.325
Bern Tower: 121.025

LSZG Tower (Archives)
Grenchen, Switzerland

Feed Status: UP
Listen in your browser - HTML5 player(in browser, HTML5)
Click here to listen with your own player(launches your MP3 player)

LSZG 020150Z AUTO 24005KT 9999 BKN029 OVC032 04/00 Q1029

LSZG Flight Activity (Flightaware)

Listeners: 0 out of 1831 total

Grenchen Tower: 120.100

LSZH Approach (East) (Archives)
Zurich, Switzerland

Feed Status: UP
Listen in your browser - HTML5 player(in browser, HTML5)
Click here to listen with your own player(launches your MP3 player)

LSZH 020150Z AUTO 25009KT 9999 FEW024 BKN027 04/M01 Q1028 NOSIG

LSZH Flight Activity (Flightaware)

Listeners: 0 out of 1831 total

Zurich Approach (East): 135.230

LSZH Approach (Final/125.325) (Archives)
Zurich, Switzerland

Feed Status: UP
Listen in your browser - HTML5 player(in browser, HTML5)
Click here to listen with your own player(launches your MP3 player)

LSZH 020150Z AUTO 25009KT 9999 FEW024 BKN027 04/M01 Q1028 NOSIG

LSZH Flight Activity (Flightaware)

Listeners: 0 out of 1831 total

Zurich Approach (Final): 125.325

LSZH Apron (South) (Archives)
Zurich, Switzerland

Feed Status: UP
Listen in your browser - HTML5 player(in browser, HTML5)
Click here to listen with your own player(launches your MP3 player)

LSZH 020150Z AUTO 25009KT 9999 FEW024 BKN027 04/M01 Q1028 NOSIG

LSZH Flight Activity (Flightaware)

Listeners: 0 out of 1831 total

Zurich Apron (South): 121.755

LSZH Apron (West) (Archives)
Zurich, Switzerland

Feed Status: UP
Listen in your browser - HTML5 player(in browser, HTML5)
Click here to listen with your own player(launches your MP3 player)

LSZH 020150Z AUTO 25009KT 9999 FEW024 BKN027 04/M01 Q1028 NOSIG

LSZH Flight Activity (Flightaware)

Listeners: 0 out of 1831 total

Zurich Apron (West): 121.855

LSZH Clearance Delivery (Archives)
Zurich, Switzerland

Feed Status: UP
Listen in your browser - HTML5 player(in browser, HTML5)
Click here to listen with your own player(launches your MP3 player)

LSZH 020150Z AUTO 25009KT 9999 FEW024 BKN027 04/M01 Q1028 NOSIG

LSZH Flight Activity (Flightaware)

Listeners: 0 out of 1831 total

Zurich Clearance Delivery: 121.925

LSZH Departure 125.950 (Archives)
Zurich, Switzerland

Feed Status: UP
Listen in your browser - HTML5 player(in browser, HTML5)
Click here to listen with your own player(launches your MP3 player)

LSZH 020150Z AUTO 25009KT 9999 FEW024 BKN027 04/M01 Q1028 NOSIG

LSZH Flight Activity (Flightaware)

Listeners: 0 out of 1831 total

Zurich Departure: 125.950

LSZH Ground (Archives)
Zurich, Switzerland

Feed Status: UP
Listen in your browser - HTML5 player(in browser, HTML5)
Click here to listen with your own player(launches your MP3 player)

LSZH 020150Z AUTO 25009KT 9999 FEW024 BKN027 04/M01 Q1028 NOSIG

LSZH Flight Activity (Flightaware)

Listeners: 0 out of 1831 total

Zurich Ground: 121.905

LSZH Radar East 133.905 (Archives)
Zurich, Switzerland

Feed Status: UP
Listen in your browser - HTML5 player(in browser, HTML5)
Click here to listen with your own player(launches your MP3 player)

LSZH 020150Z AUTO 25009KT 9999 FEW024 BKN027 04/M01 Q1028 NOSIG

LSZH Flight Activity (Flightaware)

Listeners: 2 out of 1831 total

Zurich Radar (Below FL240 East): 133.905

LSZH Radar M1 133.050 (Archives)
Zurich, Switzerland

Feed Status: UP
Listen in your browser - HTML5 player(in browser, HTML5)
Click here to listen with your own player(launches your MP3 player)

LSZH 020150Z AUTO 25009KT 9999 FEW024 BKN027 04/M01 Q1028 NOSIG

LSZH Flight Activity (Flightaware)

Listeners: 0 out of 1831 total

Zurich Radar M1: 133.050

LSZH Radar M2 133.405 (Archives)
Zurich, Switzerland

Feed Status: UP
Listen in your browser - HTML5 player(in browser, HTML5)
Click here to listen with your own player(launches your MP3 player)

LSZH 020150Z AUTO 25009KT 9999 FEW024 BKN027 04/M01 Q1028 NOSIG

LSZH Flight Activity (Flightaware)

Listeners: 0 out of 1831 total

Zurich Radar M2: 133.405

LSZH Radar M3 132.815 (Archives)
Zurich, Switzerland

Feed Status: UP
Listen in your browser - HTML5 player(in browser, HTML5)
Click here to listen with your own player(launches your MP3 player)

LSZH 020150Z AUTO 25009KT 9999 FEW024 BKN027 04/M01 Q1028 NOSIG

LSZH Flight Activity (Flightaware)

Listeners: 0 out of 1831 total

Zurich Radar: 132.815

LSZH Radar M4 134.605 (Archives)
Zurich, Switzerland

Feed Status: UP
Listen in your browser - HTML5 player(in browser, HTML5)
Click here to listen with your own player(launches your MP3 player)

LSZH 020150Z AUTO 25009KT 9999 FEW024 BKN027 04/M01 Q1028 NOSIG

LSZH Flight Activity (Flightaware)

Listeners: 0 out of 1831 total

Zurich Radar M4: 134.605

LSZH Radar M5 132.835 (Archives)
Zurich, Switzerland

Feed Status: UP
Listen in your browser - HTML5 player(in browser, HTML5)
Click here to listen with your own player(launches your MP3 player)

LSZH 020150Z AUTO 25009KT 9999 FEW024 BKN027 04/M01 Q1028 NOSIG

LSZH Flight Activity (Flightaware)

Listeners: 0 out of 1831 total

Zurich Radar M5: 132.835

LSZH Radar M6 133.690 (Archives)
Zurich, Switzerland

Feed Status: UP
Listen in your browser - HTML5 player(in browser, HTML5)
Click here to listen with your own player(launches your MP3 player)

LSZH 020150Z AUTO 25009KT 9999 FEW024 BKN027 04/M01 Q1028 NOSIG

LSZH Flight Activity (Flightaware)

Listeners: 0 out of 1831 total

Zurich Radar M6: 133.690

LSZH Radar North 136.155 (Archives)
Zurich, Switzerland

Feed Status: UP
Listen in your browser - HTML5 player(in browser, HTML5)
Click here to listen with your own player(launches your MP3 player)

LSZH 020150Z AUTO 25009KT 9999 FEW024 BKN027 04/M01 Q1028 NOSIG

LSZH Flight Activity (Flightaware)

Listeners: 0 out of 1831 total

Zurich Radar (Below FL240 North): 136.155

LSZH Radar West 135.680 (Archives)
Zurich, Switzerland

Feed Status: UP
Listen in your browser - HTML5 player(in browser, HTML5)
Click here to listen with your own player(launches your MP3 player)

LSZH 020150Z AUTO 25009KT 9999 FEW024 BKN027 04/M01 Q1028 NOSIG

LSZH Flight Activity (Flightaware)

Listeners: 0 out of 1831 total


LSZH Tower (Archives)
Zurich, Switzerland

Feed Status: UP
Listen in your browser - HTML5 player(in browser, HTML5)
Click here to listen with your own player(launches your MP3 player)

LSZH 020150Z AUTO 25009KT 9999 FEW024 BKN027 04/M01 Q1028 NOSIG

LSZH Flight Activity (Flightaware)

Listeners: 1 out of 1831 total

Zurich Tower: 118.100

LSZH Tower (14/32) (Archives)
Zurich, Switzerland

Feed Status: UP
Listen in your browser - HTML5 player(in browser, HTML5)
Click here to listen with your own player(launches your MP3 player)

LSZH 020150Z AUTO 25009KT 9999 FEW024 BKN027 04/M01 Q1028 NOSIG

LSZH Flight Activity (Flightaware)

Listeners: 0 out of 1831 total

Zurich Tower (Rwy 14 App/32 Takeoff): 120.225

LSZH Twr/Gnd (backup) (Archives)
Zurich, Switzerland

Feed Status: UP
Listen in your browser - HTML5 player(in browser, HTML5)
Click here to listen with your own player(launches your MP3 player)

LSZH 020150Z AUTO 25009KT 9999 FEW024 BKN027 04/M01 Q1028 NOSIG

LSZH Flight Activity (Flightaware)

Listeners: 0 out of 1839 total

Zurich Twr/Gnd (backup): 119.700

LSZL Tower
Locarno, Switzerland

Feed Status: DOWN
Offline since: 2023-02-02 02:12:39 UTC

LSZL 020150Z AUTO VRB02KT 9999NDV NCD 04/M07 Q1022 RMK


LSZN CTAF (Archives)
Zurich, Switzerland

Feed Status: UP
Listen in your browser - HTML5 player(in browser, HTML5)
Click here to listen with your own player(launches your MP3 player)

LSZN Flight Activity (Flightaware)

Listeners: 0 out of 1839 total

Hausen am Albis CTAF: 130.755

LSZR Tower (Archives)
Altenrhein, Switzerland

Feed Status: UP
Listen in your browser - HTML5 player(in browser, HTML5)
Click here to listen with your own player(launches your MP3 player)

LSZR 020150Z AUTO 25011KT 190V290 9999 OVC065 06/M02 Q1026

LSZR Flight Activity (Flightaware)

Listeners: 0 out of 1839 total

Altenrhein Tower: 135.425

LSZW CTAF (Archives)
Thun, Switzerland

Feed Status: UP
Listen in your browser - HTML5 player(in browser, HTML5)
Click here to listen with your own player(launches your MP3 player)

LSZW Flight Activity (Flightaware)

Listeners: 0 out of 1839 total

Thun CTAF/Info: 123.250

LTBA Gnd/Twr/App (Archives)
Istanbul, Turkey

Feed Status: UP
Listen in your browser - HTML5 player(in browser, HTML5)
Click here to listen with your own player(launches your MP3 player)

LTBA 020150Z 23012KT 9999 SCT028 08/03 Q1017 RMK RWY23 24015KT

LTBA Flight Activity (Flightaware)

Listeners: 1 out of 1839 total

Istanbul Approach: 126.425
Istanbul Approach: 133.075
Istanbul Tower: 118.100
Istanbul Tower: 118.375

LTFJ Del/Gnd/Twr (Archives)
Istanbul, Turkey

Feed Status: UP
Listen in your browser - HTML5 player(in browser, HTML5)
Click here to listen with your own player(launches your MP3 player)

LTFJ 020150Z 25010KT 9999 SCT035 BKN100 06/01 Q1017 NOSIG RMK RWY24 26009KT

LTFJ Flight Activity (Flightaware)

Listeners: 4 out of 1839 total

Pegasus Dispatch: 131.750

LTFM Gnd/Twr
Istanbul, Turkey

Feed Status: DOWN
Offline since: 2022-12-07 10:23:06 UTC

LTFM 020150Z 25011KT 9999 FEW025 BKN080 04/M02 Q1017 NOSIG RMK RWY17L 24013KT RWY34L 23010KT RWY16R 22007KT RWY36 23011KT RWY18 24012KT

Istanbul Ground : 122.600
Istanbul Ground: 124.425
Istanbul Tower: 118.075
Istanbul Tower: 122.700
Istanbul Tower: 127.500

LUKK ACC #1 (Archives)
Chisinau, Moldova

Feed Status: UP
Listen in your browser - HTML5 player(in browser, HTML5)
Click here to listen with your own player(launches your MP3 player)

LUKK 020200Z 21005KT CAVOK M01/M04 Q1010 NOSIG

LUKK Flight Activity (Flightaware)

Listeners: 0 out of 1839 total

Chisinau ACC: 130.975

LUKK ACC #2 (Archives)
Chisinau, Moldova

Feed Status: UP
Listen in your browser - HTML5 player(in browser, HTML5)
Click here to listen with your own player(launches your MP3 player)

LUKK 020200Z 21005KT CAVOK M01/M04 Q1010 NOSIG

LUKK Flight Activity (Flightaware)

Listeners: 0 out of 1839 total

Chisinau ACC: 128.975

LUKK Air to Air (Archives)
Chisinau, Moldova

Feed Status: UP
Listen in your browser - HTML5 player(in browser, HTML5)
Click here to listen with your own player(launches your MP3 player)

LUKK 020200Z 21005KT CAVOK M01/M04 Q1010 NOSIG

LUKK Flight Activity (Flightaware)

Listeners: 0 out of 1839 total

Chisinau Air to Air: 123.450

LUKK Alternate (Archives)
Chisinau, Moldova

Feed Status: UP
Listen in your browser - HTML5 player(in browser, HTML5)
Click here to listen with your own player(launches your MP3 player)

LUKK 020200Z 21005KT CAVOK M01/M04 Q1010 NOSIG

LUKK Flight Activity (Flightaware)

Listeners: 0 out of 1839 total

Chisinau Alternate: 129.725

LUKK Approach #1 (Archives)
Chisinau, Moldova

Feed Status: UP
Listen in your browser - HTML5 player(in browser, HTML5)
Click here to listen with your own player(launches your MP3 player)

LUKK 020200Z 21005KT CAVOK M01/M04 Q1010 NOSIG

LUKK Flight Activity (Flightaware)

Listeners: 0 out of 1839 total

Chisinau Approach: 133.300

LUKK Approach #2 (Archives)
Chisinau, Moldova

Feed Status: UP
Listen in your browser - HTML5 player(in browser, HTML5)
Click here to listen with your own player(launches your MP3 player)

LUKK 020200Z 21005KT CAVOK M01/M04 Q1010 NOSIG

LUKK Flight Activity (Flightaware)

Listeners: 0 out of 1839 total

Chisinau Approach: 133.300

LUKK Emergency/Guard (Archives)
Chisinau, Moldova

Feed Status: UP
Listen in your browser - HTML5 player(in browser, HTML5)
Click here to listen with your own player(launches your MP3 player)

LUKK 020200Z 21005KT CAVOK M01/M04 Q1010 NOSIG

LUKK Flight Activity (Flightaware)

Listeners: 0 out of 1839 total

Emergency/Guard: 121.500

LUKK Ground #2 (Archives)
Chisinau, Moldova

Feed Status: UP
Listen in your browser - HTML5 player(in browser, HTML5)
Click here to listen with your own player(launches your MP3 player)

LUKK 020200Z 21005KT CAVOK M01/M04 Q1010 NOSIG

LUKK Flight Activity (Flightaware)

Listeners: 0 out of 1839 total

Chisinau Ground: 121.800

LUKK Handling (Archives)
Chisinau, Moldova

Feed Status: UP
Listen in your browser - HTML5 player(in browser, HTML5)
Click here to listen with your own player(launches your MP3 player)

LUKK 020200Z 21005KT CAVOK M01/M04 Q1010 NOSIG

LUKK Flight Activity (Flightaware)

Listeners: 0 out of 1839 total

Chisinau Handling: 131.700

LUKK Tower #2 (Archives)
Chisinau, Moldova

Feed Status: UP
Listen in your browser - HTML5 player(in browser, HTML5)
Click here to listen with your own player(launches your MP3 player)

LUKK 020200Z 21005KT CAVOK M01/M04 Q1010 NOSIG

LUKK Flight Activity (Flightaware)

Listeners: 0 out of 1839 total

Chisinau Tower: 118.100

LWSK ACC (Lower) (Archives)
Petrovec, North Macedonia, Republic of

Feed Status: UP
Listen in your browser - HTML5 player(in browser, HTML5)
Click here to listen with your own player(launches your MP3 player)

LWSK 020130Z 12002KT 9999 BKN075 M01/M03 Q1020 NOSIG

LWSK Flight Activity (Flightaware)

Listeners: 0 out of 1839 total

Skopje Control (Lower): 119.375

LWSK ACC (Upper) (Archives)
Petrovec, North Macedonia, Republic of

Feed Status: UP
Listen in your browser - HTML5 player(in browser, HTML5)
Click here to listen with your own player(launches your MP3 player)

LWSK 020130Z 12002KT 9999 BKN075 M01/M03 Q1020 NOSIG

LWSK Flight Activity (Flightaware)

Listeners: 0 out of 1839 total

Skopje Control (Upper): 120.015

LWSK Approach (Archives)
Petrovec, North Macedonia, Republic of

Feed Status: UP
Listen in your browser - HTML5 player(in browser, HTML5)
Click here to listen with your own player(launches your MP3 player)

LWSK 020130Z 12002KT 9999 BKN075 M01/M03 Q1020 NOSIG

LWSK Flight Activity (Flightaware)

Listeners: 0 out of 1839 total

Skopje Approach/Departure: 120.300

LWSK ATIS (Archives)
Petrovec, North Macedonia, Republic of

Feed Status: UP
Listen in your browser - HTML5 player(in browser, HTML5)
Click here to listen with your own player(launches your MP3 player)

LWSK 020130Z 12002KT 9999 BKN075 M01/M03 Q1020 NOSIG

LWSK Flight Activity (Flightaware)

Listeners: 0 out of 1839 total

Skopje ATIS: 130.125

LWSK Tower (Archives)
Petrovec, North Macedonia, Republic of

Feed Status: UP
Listen in your browser - HTML5 player(in browser, HTML5)
Click here to listen with your own player(launches your MP3 player)

LWSK 020130Z 12002KT 9999 BKN075 M01/M03 Q1020 NOSIG

LWSK Flight Activity (Flightaware)

Listeners: 0 out of 1839 total

Skopje Tower: 118.500

LYNI Twr/App (Archives)
Nis, Serbia

Feed Status: UP
Listen in your browser - HTML5 player(in browser, HTML5)
Click here to listen with your own player(launches your MP3 player)

LYNI 020130Z 08004KT CAVOK 01/M01 Q1019 NOSIG

LYNI Flight Activity (Flightaware)

Listeners: 0 out of 1839 total

Nis Approach: 119.525
Nis Approach/Tower (Alternate): 136.075
Nis Tower: 118.950

LZKZ Gnd/Twr/App (Archives)
Kosice, Slovakia

Feed Status: UP
Listen in your browser - HTML5 player(in browser, HTML5)
Click here to listen with your own player(launches your MP3 player)

LZKZ 020200Z VRB02KT CAVOK M01/M02 Q1008 NOSIG

LZKZ Flight Activity (Flightaware)

Listeners: 0 out of 1839 total

Kosice Approach: 129.350
Kosice Approach (backup): 119.850
Kosice Ground: 121.700
Kosice Handling: 131.850
Kosice Tower: 120.400

LZNI CTAF (Archives)
Nitra, Slovakia

Feed Status: UP
Listen in your browser - HTML5 player(in browser, HTML5)
Click here to listen with your own player(launches your MP3 player)

LZNI Flight Activity (Flightaware)

Listeners: 0 out of 1839 total

Nitra Traffic Radio: 123.405

LZPE CTAF/UNICOM (Archives)
Prievidza, Slovakia

Feed Status: UP
Listen in your browser - HTML5 player(in browser, HTML5)
Click here to listen with your own player(launches your MP3 player)

LZPE Flight Activity (Flightaware)

Listeners: 0 out of 1839 total

Prievidza CTAF/UNICOM: 123.055

LZPP Ground/Tower (Archives)
Piestany, Slovakia

Feed Status: UP
Listen in your browser - HTML5 player(in browser, HTML5)
Click here to listen with your own player(launches your MP3 player)

LZPP 020130Z AUTO 28003KT 200V330 9999 02/M00 Q1013

LZPP Flight Activity (Flightaware)

Listeners: 0 out of 1839 total

Piestany Ground: 121.700
Piestany Tower: 118.575

LZPT CTAF (Archives)
Partizanske, Slovakia

Feed Status: UP
Listen in your browser - HTML5 player(in browser, HTML5)
Click here to listen with your own player(launches your MP3 player)

LZPT Flight Activity (Flightaware)

Listeners: 0 out of 1839 total

Male Bielice CTAF: 123.500

URSS Gnd/Twr/App (Archives)
Sochi, Russia

Feed Status: UP
Listen in your browser - HTML5 player(in browser, HTML5)
Click here to listen with your own player(launches your MP3 player)

URSS 020130Z 03003MPS 9999 SCT053CB OVC080 04/02 Q1011 WS ALL RWY R02/290060 R06/290060 NOSIG RMK R06/00000MPS QFE757

URSS Flight Activity (Flightaware)

Listeners: 2 out of 1839 total

Sochi Approach: 118.300
Sochi Approach: 119.700
Sochi District (Small Aircraft): 118.500
Sochi Start: 121.200
Sochi Taxi: 119.000
Sochi Tower: 124.600

USDD Gnd/Twr/App/Control (Archives)
Salekhard, Russia

Feed Status: UP
Listen in your browser - HTML5 player(in browser, HTML5)
Click here to listen with your own player(launches your MP3 player)


USDD Flight Activity (Flightaware)

Listeners: 1 out of 1839 total

Salekhard Control: 132.300
Salekhard Ground: 118.800
Salekhard Info: 125.200
Salekhard Krug: 120.800
Salekhard Tower: 118.600
Salekhard Transit: 131.700

UUEE Twr/App/Radar (Archives)
Moscow, Russia

Feed Status: UP
Listen in your browser - HTML5 player(in browser, HTML5)
Click here to listen with your own player(launches your MP3 player)

UUEE 020130Z 16004MPS 9999 BKN018 M02/M05 Q1004 R24L/520145 R24C/520145 NOSIG

UUEE Flight Activity (Flightaware)

Listeners: 1 out of 1839 total

Sheremetyevo Radar (low altitude): 119.300
Sheremetyevo Radar/Arrival: 122.700
Sheremetyevo Radar/Departure: 126.600
Sheremetyevo Tower: 131.500